Welcome to the New NWS' Forecast!
Most changes are behind the scenes, but click here for differences you might notice.
Latest weather observations around

Tuscaloosa Regional Airport (KTCL)

Using English Units (Switch to International System of Units)
Date/ Time (CDT) Wind (mph) Vis. (mi) Weather Sky Cond. Temp (°F) Rel. Humidity Wind Chill (°F) Heat Index (°F) Pressure Precip. (in)
Air Dwpt 6 hour Altimeter (inHg) Sea level (inHg) 1 hr 3 hr 6 hr
Max Min
Jun 28 04:53 N 3 10 Clear CLR 66 65     96%     30.06 30.05      
Jun 28 03:53 Calm 10 Clear CLR 66 66     100%     30.05 30.04      
Jun 28 02:53 Calm 10 Clear CLR 68 67     96%     30.05 30.04      
Jun 28 01:53 Calm 10 Clear CLR 69 68     96%     30.06 30.05      
Jun 28 00:53 Calm 10 Mostly Clear FEW060 70 68     93%     30.06 30.06      
Jun 27 23:53 Calm 10 Clear CLR 71 69     93%   72 30.06 30.06      
Jun 27 22:53 Calm 10 Partly Cloudy SCT060 71 69     93%   72 30.06 30.06      
Jun 27 21:53 Calm 10 Mostly Clear FEW070 73 68     84%   74 30.05 30.04      
Jun 27 20:53 Calm 10 Clear CLR 74 70     87%   75 30.03 30.02      
Jun 27 19:53 NE 6 10 Clear CLR 79 66     65%   80 30.01 30      
Jun 27 19:22 7 10 Mostly Clear FEW002 83 63     51%   84 30.01        
Jun 27 18:53 10 10 Clear CLR 85 63     48%   86 30.01 30      
Jun 27 17:53 N 8 10 Clear CLR 86 63     46%   87 30.01 30      
Jun 27 16:53 10 10 Clear CLR 87 64     46%   88 30.02 30.01      
Jun 27 15:53 7 10 Mostly Clear FEW060 88 65     47%   90 30.04 30.03      
Jun 27 14:53 N 5 10 Clear CLR 87 65     48%   89 30.05 30.04      
Jun 27 13:53 NE 9 10 Clear CLR 86 62     45%   87 30.06 30.05      
Jun 27 12:53 NE 11 10 Clear CLR 85 62     46%   86 30.07 30.06      
Jun 27 11:53 8 10 Clear CLR 85 63     48%   86 30.08 30.07      
Jun 27 10:53 N 7 10 Clear CLR 85 63     48%   86 30.09 30.08      
Jun 27 09:53 Calm 10 Clear CLR 81 64     56%   83 30.09 30.09      
Jun 27 08:53 NE 6 10 Clear CLR 79 65     62%   80 30.1 30.09      
Jun 27 07:53 Calm 10 Clear CLR 72 67     84%   73 30.09 30.08      
Jun 27 06:53 N 3 10 Clear CLR 67 66     97%     30.08 30.07      
Jun 27 05:53 N 5 10 Clear CLR 66 66     100%     30.07 30.06      
Jun 27 04:53 Calm 10 Clear CLR 66 66     100%     30.06 30.05      
Jun 27 03:53 Calm 10 Clear CLR 67 67     100%     30.06 30.05      
Jun 27 01:53 Calm 10 Clear CLR 69 66     90%     30.06 30.05      
Jun 27 00:53 Calm 10 Mostly Clear FEW120 70 69     97%     30.07 30.06      
Jun 26 23:53 Calm 10 Mostly Clear FEW120 71 69     93%   72 30.09 30.08      
Jun 26 22:53 Calm 10 Clear CLR 72 68     87%   73 30.09 30.08      
Jun 26 20:53 Calm 10 Clear CLR 73 67     81%   74 30.06 30.05      
Jun 26 19:53 3 10 Clear CLR 76 68     76%   77 30.05 30.04      
Jun 26 18:53 6 10 Clear CLR 83 62     49%   84 30.05 30.04      
Jun 26 17:53 5 10 Clear CLR 85 59     42%   85 30.05 30.04      
Jun 26 16:53 N 6 10 Clear CLR 87 61     42%   87 30.07 30.06      
Jun 26 15:53 3 10 Clear CLR 85 58     40%   84 30.08 30.07      
Jun 26 14:53 9 10 Clear CLR 86 59     40%   85 30.11 30.1      
Jun 26 13:53 7 10 Clear CLR 85 57     39%   84 30.13 30.12      
Jun 26 12:53 NE 10 10 Clear CLR 84 58     41%   83 30.15 30.14      
Jun 26 11:53 NE 10 10 Clear CLR 83 56     40%   82 30.17 30.16      
Jun 26 10:53 14 10 Clear CLR 82 58     44%   82 30.18 30.17      
Jun 26 08:53 N 6 10 Clear CLR 73 65     76%   74 30.2 30.19      
Jun 26 07:53 N 8 10 Clear CLR 67 65     93%     30.19 30.19      
Jun 26 06:53 Calm 8 Clear CLR 63 63     100%     30.19 30.18      
Jun 26 05:53 Calm 3 Fog/Mist CLR 60 60     100%     30.18 30.17      
Jun 26 04:53 Calm 7 Clear CLR 61 61     100%     30.17 30.16      
Jun 26 03:53 Calm 8 Clear CLR 62 62     100%     30.16 30.16      
Jun 26 02:53 Calm 7 Clear CLR 62 62     100%     30.16 30.16      
Jun 26 01:53 Calm 9 Clear CLR 63 63     100%     30.16 30.16      
Jun 26 00:53 Calm 10 Clear CLR 64 64     100%     30.17 30.16      
Jun 25 23:53 Calm 10 Clear CLR 65 65     100%     30.18 30.17      
Jun 25 22:53 Calm 10 Clear   66 65     96%     30.19 30.18      
Jun 25 21:53 Calm 10 Clear CLR 67 66     97%     30.18 30.17      
Jun 25 20:53 Calm 10 Clear CLR 68 66     93%     30.17 30.17      
Jun 25 19:53 N 3 10 Clear CLR 73 64     73%   73 30.18 30.17      
Jun 25 18:53 Calm 10 Clear CLR 74 62     66%   74 30.17 30.16      
Jun 25 17:53 6 10 Clear CLR 75 61     62%   75 30.15 30.14      
Jun 25 16:53 10 10 Clear CLR 76 57     52%   76 30.16 30.15      
Jun 25 14:53 NE 11 10 Clear CLR 77 57     50%   77 30.18 30.17      
Jun 25 13:53 N 11 10 Clear CLR 79 59     50%   79 30.21 30.2      
Jun 25 12:53 6 10 Clear CLR 80 60     51%   81 30.22 30.21      
Jun 25 11:53 N 11 10 Clear CLR 80 62     54%   81 30.22 30.21      
Jun 25 10:53 NE 10 10 Clear CLR 78 64     62%   79 30.21 30.2      
Jun 25 09:53 9 10 Clear CLR 76 64     67%   76 30.2 30.19      
Jun 25 08:53 6 10 Clear CLR 72 65     79%   73 30.18 30.17      
Jun 25 07:53 7 10 Clear CLR 70 64     81%     30.19 30.18      
Jun 25 06:53 N 8 10 Clear CLR 70 65     84%     30.17 30.16      
Jun 25 05:53 N 7 10 Clear CLR 69 65     87%     30.16 30.15      
Jun 25 04:53 N 6 10 Clear CLR 70 66     87%     30.14 30.13      
Jun 25 03:53 N 5 10 Clear CLR 71 66     84%   72 30.12 30.11      
Jun 25 02:53 5 10 Clear CLR 71 66     84%   72 30.12 30.11      
Jun 25 01:53 N 7 10 Clear CLR 72 67     84%   73 30.11 30.1      
Jun 25 00:53 N 7 10 Clear CLR 73 68     84%   74 30.11 30.11      
Jun 24 23:53 N 7 10 Clear CLR 74 69     85%   75 30.12 30.11      
Jun 24 22:53 N 8 10 Clear CLR 75 70     84%   76 30.1 30.09      
Jun 24 21:53 NNW 5 10 Clear CLR 76 71     85%   77 30.08 30.07      
Jun 24 20:53 NNW 3 10 Clear CLR 78 71     79%   79 30.07 30.06      
Jun 24 19:53 NNW 7 10 Clear CLR 81 71     72%   85 30.06 30.05      
Jun 24 18:53 NNW 5 10 Clear CLR 85 73     68%   92 30.03 30.02     0
Jun 24 17:53 N 9 10 Clear CLR 86 74     67%   94 30.01 30      
Jun 24 16:53 6 10 Clear CLR 83 79     88%   94 30 29.99 0    
Jun 24 16:03 3 3 Light Rain and Fog/Mist FEW041 BKN055 OVC090 75 75     100%   77 30.01   0    
Jun 24 15:53 5 1 Rain and Fog/Mist FEW024 BKN055 OVC070 75 75     100%   77 30.01 30 0 0  
Jun 24 15:50 3 1.25 Heavy Rain and Fog/Mist FEW029 BKN047 OVC085 75 73     94%   77 30.01   0    
Jun 24 15:44 8 2.5 Rain and Fog/Mist FEW029 SCT043 BKN055 76 75     97%   78 30.02   0    
Jun 24 15:31 W 13 10 Thunderstorms FEW027 SCT036 BKN043 85 77     77%   95 30.01        
Jun 24 14:53 7 10 Mostly Clear FEW021 85 78     80%   97 30.01 30      
Jun 24 13:53 W 6 10 Mostly Cloudy FEW018 SCT025 BKN033 83 77     82%   92 30.03 30.02      
Jun 24 13:50 WSW 5 10 Mostly Cloudy FEW018 SCT025 BKN033 82 77     84%   91 30.02        
Jun 24 12:53 5 10 Mostly Cloudy BKN017 82 77     85%   90 30.03 30.02      
Jun 24 11:53 6 10 Cloudy OVC019 79 75     88%   83 30.04 30.03      
Jun 24 10:53 3 10 Cloudy OVC020 78 75     90%   80 30.03 30.02      
Jun 24 10:23 3 10 Cloudy SCT012 OVC019 78 75     90%   80 30.02        
Jun 24 09:53 6 10 Cloudy OVC014 77 75     94%   79 30.02 30.01      
Jun 24 08:53 5 10 Cloudy OVC012 76 74     94%   78 30 29.99      
Jun 24 07:53 5 10 Mostly Cloudy BKN011 76 75     97%   78 30 29.99      
Jun 24 07:38 Calm 10 Mostly Cloudy FEW007 BKN014 75 75     100%   77 30        
Jun 24 06:53 5 10 Clear CLR 74 74     100%   76 29.98 29.97     0
Jun 24 05:53 3 10 Partly Cloudy SCT008 SCT014 74 74     100%   76 29.97 29.96      
Jun 24 05:51 5 10 Mostly Cloudy SCT008 SCT014 BKN019 73 73     100%   75 29.97        
Jun 24 05:46 3 10 Mostly Cloudy BKN009 BKN017 74 74     100%   76 29.97        
Jun 24 05:32 W 5 10 Cloudy FEW009 OVC017 74 74     100%   76 29.98        
Jun 24 04:53 5 10 Cloudy OVC016 74 74     100%   76 29.96 29.95 0    
Jun 24 04:36 3 10 Cloudy SCT009 OVC016 74 74     100%   76 29.94   0    
Jun 24 04:31 WSW 3 10 Cloudy SCT011 OVC017 74 74     100%   76 29.94   0    
Jun 24 03:53 3 10 Cloudy OVC009 74 74     100%   76 29.94 29.93 0 0  
Jun 24 03:15 Calm 10 Light Rain BKN009 BKN110 74 74     100%   76 29.91   0    
Jun 24 02:53 7 10 Light Rain FEW110 74 74     100%   76 29.9 29.89 0    
Jun 24 01:53 S 10 8 Light Rain FEW005 SCT028 BKN110 73 73     100%   75 29.93 29.92 0    
Jun 24 01:20 7 6 Light Rain and Fog/Mist SCT006 BKN090 OVC110 73 73     100%   75 29.92   0    
Jun 24 01:18 S 8 6 Rain and Fog/Mist SCT006 BKN027 OVC110 73 73     100%   75 29.92   0    
Jun 24 01:09 7 5 Thunderstorms and Rain and Fog/Mist BKN006 BKN024 OVC090 73 73     100%   75 29.92   0    
Jun 24 01:02 S 7 3 Rain and Fog/Mist BKN006 BKN010 OVC024 73 73     100%   75 29.93   0    
Jun 24 00:53 S 8 1.75 Heavy Rain and Fog/Mist BKN006 OVC020 73 73     100%   75 29.93 29.92 0   1
Jun 24 00:29 7 6 Light Rain and Fog/Mist OVC007 74 74     100%   76 29.95   0    
Jun 23 23:53 S 6 10 Cloudy BKN007 OVC030 74 74     100%   76 29.95 29.94      
Jun 23 22:53 S 5 10 Cloudy OVC005 74 74     100%   76 29.94 29.93 0    
Jun 23 22:38 5 10 Cloudy BKN005 BKN095 OVC110 74 74     100%   76 29.95   0    
Jun 23 22:11 S 9 3 Heavy Rain and Fog/Mist FEW005 SCT026 OVC041 73 73     100%   75 29.94   0    
Jun 23 22:05 S 8 1.75 Heavy Rain and Fog/Mist FEW005 SCT023 OVC033 73 73     100%   75 29.94   0    
Jun 23 21:56 S 8 2 Heavy Rain and Fog/Mist FEW007 BKN025 OVC036 73 73     100%   75 29.95   0    
Jun 23 21:53 S 10 2.5 Heavy Rain and Fog/Mist FEW024 SCT029 OVC036 73 73     100%   75 29.95 29.94 0 0  
Jun 23 21:44 S 9 1.75 Heavy Rain and Fog/Mist BKN027 OVC037 73 73     100%   75 29.95   0    
Jun 23 21:37 S 10 1.75 Heavy Rain and Fog/Mist FEW007 SCT027 OVC037 73 73     100%   75 29.96   0    
Jun 23 21:29 S 10 1.75 Heavy Rain and Fog/Mist SCT007 BKN028 OVC037 73 73     100%   75 29.95   0    
Jun 23 21:18 6 1.75 Heavy Rain and Fog/Mist BKN007 BKN015 OVC039 74 74     100%   76 29.96   0    
Jun 23 20:53 S 8 10 Cloudy BKN009 BKN016 OVC070 74 74     100%   76 29.96 29.95      
Jun 23 20:35 S 7 10 Cloudy SCT008 OVC017 74 74     100%   76 29.95        
Jun 23 20:16 S 7 10 Mostly Cloudy FEW012 BKN017 BKN043 74 74     100%   76 29.95        
Jun 23 19:53 S 8 10 Mostly Clear FEW008 FEW018 74 74     100%   76 29.93 29.92      
Jun 23 19:30 S 7 10 Partly Cloudy FEW006 SCT021 SCT026 75 75     100%   77 29.91        
Jun 23 19:22 S 5 10 Mostly Cloudy SCT006 SCT021 BKN026 75 75     100%   77 29.91        
Jun 23 18:53 S 10 10 Mostly Cloudy BKN006 BKN022 75 75     100%   77 29.91 29.9 0   1
Jun 23 18:39 8 10 Light Rain SCT005 BKN010 BKN015 75 75     100%   77 29.9   0    
Jun 23 18:33 S 8 10 Mostly Cloudy FEW005 SCT010 BKN046 75 75     100%   77 29.9   0    
Jun 23 17:53 S 6 10 Mostly Cloudy SCT009 BKN014 76 76     100%   78 29.89 29.88 0    
Jun 23 17:46 S 5 10 Mostly Cloudy SCT009 BKN016 76 76     100%   78 29.89   0    
Jun 23 17:33 S 6 10 Mostly Cloudy SCT009 BKN012 76 76     100%   78 29.89   0    
Jun 23 17:21 S 5 10 Light Rain BKN013 BKN034 76 76     100%   78 29.88   0    
Jun 23 16:53 8 8 Light Rain SCT050 SCT070 BKN095 75 75     100%   77 29.89 29.88 0    
Jun 23 15:53 5 10 Light Rain FEW050 BKN095 OVC110 75 75     100%   77 29.89 29.88 1 1  
Jun 23 15:32 6 4 Rain and Fog/Mist FEW010 BKN049 OVC100 75 75     100%   77 29.89   1    
Jun 23 15:18 10 2 Rain and Fog/Mist FEW009 BKN032 OVC050 75 75     100%   77 29.91   0    
Jun 23 15:10 WSW 6 1 Rain and Fog/Mist SCT009 BKN019 OVC050 74 74     100%   76 29.9   0    
Jun 23 14:59 WSW 11 0.5 Thunderstorms and Heavy Rain and Fog FEW011 BKN015 OVC023 74 74     100%   76 29.9   0    
Jun 23 14:53 W 14 0.25 Heavy Rain and Fog BKN015 BKN023 BKN041 74 74     100%   76 29.91 29.9 0    
Jun 23 14:51 W 10 0.5 Heavy Rain and Fog BKN015 BKN023 BKN041 75 75     100%   77 29.92   0    
Jun 23 14:43 W 10 1.25 Heavy Rain and Fog/Mist FEW017 BKN025 BKN040 76 75     97%   78 29.9   0    
Jun 23 14:40 W 13 2.5 Light Rain and Fog/Mist FEW018 SCT025 BKN040 78 75     90%   80 29.9   0    
Jun 23 14:17 S 13 10 Mostly Cloudy FEW050 SCT060 BKN080 82 78     88%   91 29.87   0    
Jun 23 13:53 13 7 Light Rain FEW026 SCT048 BKN060 82 79     90%   92 29.89 29.88 0    
Jun 23 13:43 S 11 10 Partly Cloudy FEW028 SCT037 SCT046 84 80     88%   97 29.88   0    
Jun 23 12:53 8 9 Cloudy SCT029 BKN036 OVC050 81 79     94%   89 29.88 29.87 0   0
Jun 23 12:46 9 2.5 Heavy Rain and Fog/Mist FEW029 BKN036 OVC050 81 78     91%   89 29.88   0    
Jun 23 11:53 14 10 Mostly Cloudy FEW027 BKN033 BKN043 86 78     77%   98 29.88 29.88      
Jun 23 10:53 S 18 9 Mostly Cloudy SCT026 BKN036 83 77     82%   92 29.9 29.89      
Jun 23 10:28 17 9 Cloudy FEW023 BKN030 OVC049 82 77     85%   90 29.91        
Jun 23 09:53 14 9 Cloudy BKN020 OVC029 80 77     90%   86 29.91 29.9      
Jun 23 08:53 S 13 8 Mostly Cloudy BKN018 BKN025 BKN035 79 77     94%   83 29.91 29.91      
Jun 23 08:19 S 16 8 Mostly Cloudy SCT017 BKN022 BKN090 78 77     96%   81 29.92        
Jun 23 07:53 S 13 7 Mostly Cloudy SCT017 BKN100 78 77     96%   81 29.91 29.9      
Jun 23 07:10 S 14 7 Mostly Cloudy FEW016 SCT030 BKN090 77 77     100%   79 29.92        
Jun 23 06:53 S 14 7 Cloudy BKN017 BKN023 OVC033 77 76     96%   79 29.91 29.9 0   0
Jun 23 06:08 S 7 9 Cloudy FEW009 BKN019 OVC025 76 76     100%   78 29.9        
Jun 23 06:01 S 8 9 Cloudy SCT013 BKN021 OVC027 76 76     100%   78 29.9        
Jun 23 05:53 S 8 10 Cloudy FEW010 BKN014 OVC023 76 76     100%   78 29.9 29.9 0    
Jun 23 05:37 S 10 10 Cloudy SCT013 BKN017 OVC025 76 76     100%   78 29.9   0    
Jun 23 04:53 S 11 10 Cloudy BKN013 OVC019 76 76     100%   78 29.89 29.88 0    
Jun 23 03:53 S 9 9 Light Rain BKN013 OVC039 75 75     100%   77 29.89 29.88 0 0  
Jun 23 03:32 S 10 10 Light Rain BKN014 OVC039 75 75     100%   77 29.9   0    
Jun 23 03:01 S 9 10 Cloudy BKN016 OVC090 75 75     100%   77 29.9        
Jun 23 02:53 S 9 10 Cloudy SCT018 BKN035 OVC090 75 75     100%   77 29.91 29.9 0    
Jun 23 02:22 S 10 10 Cloudy FEW014 BKN075 OVC090 76 76     100%   78 29.9   0    
Jun 23 02:03 S 10 10 Cloudy FEW012 BKN028 OVC070 76 76     100%   78 29.91        
Jun 23 01:53 S 9 10 Cloudy FEW012 BKN034 OVC110 76 76     100%   78 29.91 29.9 0    
Jun 23 01:48 S 8 10 Cloudy FEW010 BKN031 OVC070 75 75     100%   77 29.91   0    
Jun 23 01:37 S 8 10 Cloudy SCT012 BKN027 OVC038 76 76     100%   78 29.91   0    
Jun 23 01:10 S 11 7 Light Rain BKN012 BKN023 OVC036 76 76     100%   78 29.92   0    
Jun 23 01:02 S 10 10 Light Rain SCT014 BKN023 OVC039 76 76     100%   78 29.92   0    
Jun 23 00:53 S 11 10 Light Rain SCT020 BKN036 OVC070 76 76     100%   78 29.92 29.91 0   0
Jun 22 23:53 S 11 10 Cloudy FEW017 BKN060 OVC100 77 76     96%   79 29.92 29.91      
Jun 22 22:53 S 11 10 Cloudy FEW017 BKN070 OVC110 77 76     96%   79 29.92 29.91 0    
Jun 22 21:53 S 15 10 Cloudy FEW015 BKN075 OVC090 78 78     100%   81 29.9 29.89 0 0  
Jun 22 21:38 9 9 Light Rain SCT007 BKN017 OVC075 78 78     100%   81 29.89   0    
Jun 22 21:21 SE 8 4 Light Rain and Fog/Mist BKN007 BKN013 OVC030 77 77     100%   79 29.89   0    
Jun 22 21:06 7 7 Light Rain SCT009 BKN014 OVC033 77 77     100%   79 29.89   0    
Jun 22 20:53 S 11 8 Light Rain FEW012 BKN022 OVC050 78 78     100%   81 29.89 29.88 0    
Jun 22 19:53 S 13 10 Light Rain FEW013 BKN044 OVC065 78 78     100%   81 29.89 29.88 0    
Jun 22 19:30 SE 11 3 Light Rain and Fog/Mist FEW009 BKN035 OVC047 78 78     100%   81 29.87   0    
Jun 22 19:25 SE 13 2 Light Rain and Fog/Mist FEW018 BKN035 OVC048 78 78     100%   81 29.88   0    
Jun 22 19:13 SE 10 1.75 Rain and Fog/Mist SCT015 BKN021 OVC043 78 78     100%   81 29.88   0    
Jun 22 19:06 SE 10 2.5 Rain and Fog/Mist SCT018 BKN031 OVC040 78 78     100%   81 29.88   0    
Jun 22 18:53 SE 10 5 Light Rain and Fog/Mist FEW014 BKN028 OVC036 78 78     100%   81 29.88 29.87 0   1
Jun 22 18:32 SE 9 9 Light Rain BKN027 BKN044 OVC055 79 77     94%   83 29.88   0    
Jun 22 18:18 7 10 Cloudy FEW018 BKN030 OVC060 80 77     90%   86 29.89        
Jun 22 17:53 8 10 Cloudy BKN021 OVC027 80 77     90%   86 29.88 29.87      
Jun 22 17:14 S 14 10 Mostly Cloudy SCT019 BKN027 81 77     88%   88 29.87        
Jun 22 16:53 8 10 Mostly Clear FEW020 80 77     90%   86 29.87 29.86 0    
Jun 22 15:53 14 10 Cloudy BKN015 OVC022 78 77     96%   81 29.9 29.89 0 1  
Jun 22 15:30 S 10 10 Cloudy FEW008 SCT011 OVC022 78 78     100%   81 29.9   0    
Jun 22 15:16 9 3 Light Rain and Fog/Mist BKN009 OVC014 76 76     100%   78 29.9   0    
Jun 22 15:13 S 6 1.5 Light Rain and Fog/Mist BKN009 OVC014 76 76     100%   78 29.9   0    
Jun 22 15:04 S 8 0.5 Thunderstorms and Heavy Rain and Fog BKN009 OVC016 76 76     100%   78 29.9   0    
Jun 22 14:58 8 0.75 Thunderstorms and Heavy Rain and Fog/Mist SCT009 OVC016 76 76     100%   78 29.91   0    
Jun 22 14:53 9 0.5 Heavy Rain and Fog SCT009 BKN013 OVC019 76 76     100%   78 29.91 29.9 0    
Jun 22 14:51 7 0.5 Heavy Rain and Fog SCT009 BKN014 OVC032 75 75     100%   77 29.91   0    
Jun 22 14:46 SE 7 0.75 Heavy Rain and Fog/Mist SCT011 BKN019 OVC037 77 77     100%   79 29.91   0    
Jun 22 14:37 SE 7 2.5 Heavy Rain and Fog/Mist FEW011 BKN021 OVC050 77 77     100%   79 29.91   0    
Jun 22 13:53 9 10 Mostly Cloudy SCT012 SCT060 BKN070 78 78     100%   81 29.92 29.91 0    
Jun 22 13:06 SE 5 4 Light Rain and Fog/Mist FEW008 BKN070 OVC090 77 77     100%   79 29.93   0    
Jun 22 12:53 S 9 3 Rain and Fog/Mist SCT010 BKN050 OVC075 77 77     100%   79 29.94 29.93 0   1
Jun 22 12:45 S 9 3 Rain and Fog/Mist FEW008 BKN046 OVC065 77 77     100%   79 29.94   0    
Jun 22 12:43 S 8 2.5 Rain and Fog/Mist FEW010 BKN046 OVC065 77 77     100%   79 29.94   0    
Jun 22 12:28 S 8 1.5 Heavy Rain and Fog/Mist FEW010 OVC046 77 77     100%   79 29.94   0    
Jun 22 12:04 S 11 2.5 Rain and Fog/Mist SCT016 BKN044 OVC100 77 77     100%   79 29.94   0    
Jun 22 11:53 6 3 Rain and Fog/Mist FEW055 BKN095 OVC110 77 77     100%   79 29.95 29.94 0    
Jun 22 11:02 SE 5 10 Light Rain FEW009 BKN047 OVC090 77 77     100%   79 29.95   0    
Jun 22 10:53 S 7 10 Light Rain FEW026 BKN047 OVC095 77 77     100%   79 29.95 29.94 0    
Jun 22 10:35 S 9 3 Rain and Fog/Mist SCT012 BKN033 OVC070 77 77     100%   79 29.95   0    
Jun 22 10:28 SE 11 1.75 Heavy Rain and Fog/Mist SCT010 BKN031 OVC039 77 77     100%   79 29.95   0    
Jun 22 10:20 SE 14 10 Light Rain SCT010 BKN018 OVC034 77 77     100%   79 29.94   0    
Jun 22 10:13 SE 11 4 Light Rain and Fog/Mist SCT009 BKN013 OVC037 77 77     100%   79 29.94   0    
Jun 22 10:11 SE 9 2 Light Rain and Fog/Mist BKN009 BKN018 OVC037 77 77     100%   79 29.94   0    
Jun 22 10:05 S 10 1.75 Heavy Rain and Fog/Mist BKN012 BKN018 OVC032 77 77     100%   79 29.95   0    
Jun 22 09:53 7 10 Mostly Cloudy BKN012 78 77     96%   81 29.94 29.93 0 1  
Jun 22 09:05 SE 8 10 Cloudy BKN011 BKN016 OVC023 77 77     100%   79 29.94   0    
Jun 22 08:53 SE 8 10 Cloudy SCT012 BKN017 OVC025 77 77     100%   79 29.95 29.94 0    
Jun 22 08:30 SE 6 3 Light Rain and Fog/Mist FEW016 BKN026 OVC070 76 76     100%   78 29.95   0    
Jun 22 08:14 SE 8 3 Light Rain and Fog/Mist FEW020 BKN039 OVC070 76 76     100%   78 29.95   0    
Jun 22 08:08 SE 9 1.75 Rain and Fog/Mist FEW020 BKN037 OVC070 75 75     100%   77 29.95   0    
Jun 22 07:53 SE 10 1.25 Rain and Fog/Mist FEW007 BKN028 OVC039 75 75     100%   77 29.95 29.94 0    
Jun 22 07:48 SE 8 0.75 Heavy Rain and Fog/Mist FEW007 FEW016 OVC028 75 75     100%   77 29.95   0    
Jun 22 07:37 SE 9 1.75 Heavy Rain and Fog/Mist FEW009 SCT016 OVC025 76 76     100%   78 29.94   0    
Jun 22 07:09 5 10 Cloudy BKN016 OVC024 76 76     100%   78 29.93   0    
Jun 22 06:53 SE 7 10 Cloudy BKN013 OVC019 75 75     100%   77 29.93 29.92 0   1
Jun 22 06:22 8 3 Rain and Fog/Mist SCT008 BKN014 OVC026 75 75     100%   77 29.92   0    
Jun 22 06:16 3 1.75 Heavy Rain and Fog/Mist BKN008 BKN018 OVC026 75 75     100%   77 29.92   0    
Jun 22 06:13 5 2 Heavy Rain and Fog/Mist SCT008 OVC016 75 75     100%   77 29.92   0    
Jun 22 05:58 6 1.75 Heavy Rain and Fog/Mist SCT008 BKN017 OVC033 75 75     100%   77 29.92   0    
Jun 22 05:53 9 5 Light Rain and Fog/Mist SCT010 BKN015 OVC046 75 75     100%   77 29.92 29.91 0    
Jun 22 04:53 E 7 8 Light Rain SCT021 BKN028 OVC047 75 75     100%   77 29.91 29.9 0    
Jun 22 04:27 E 3 10 Cloudy FEW010 BKN027 OVC060 75 75     100%   77 29.91   0    
Jun 22 03:53 E 5 10 Mostly Cloudy SCT030 BKN042 BKN090 75 75     100%   77 29.92 29.91 0 0  
Jun 22 03:26 6 10 Cloudy SCT010 BKN033 OVC090 74 74     100%   76 29.92   0    
Jun 22 03:02 5 3 Light Rain and Fog/Mist FEW008 BKN023 OVC036 74 74     100%   76 29.93   0    
Jun 22 02:53 E 7 1.75 Heavy Rain and Fog/Mist FEW008 OVC023 74 74     100%   76 29.93 29.92 0    
Jun 22 02:35 E 6 2.5 Heavy Rain and Fog/Mist FEW010 BKN024 OVC034 74 74     100%   76 29.93   0    
Jun 22 02:12 E 8 3 Light Rain and Fog/Mist SCT024 BKN030 OVC040 74 74     100%   76 29.94   0    
Jun 22 02:01 6 7 Light Rain BKN026 OVC036 74 74     100%   76 29.94   0    
Jun 22 01:53 E 6 6 Light Rain and Fog/Mist SCT026 OVC038 74 74     100%   76 29.95 29.94 0    
Jun 22 00:53 8 9 Light Rain FEW009 BKN060 OVC070 74 74     100%   76 29.96 29.96 0   0
Jun 22 00:24 E 8 3 Light Rain and Fog/Mist FEW008 BKN044 OVC055 74 74     100%   76 29.98   0    
Jun 21 23:53 E 7 5 Rain and Fog/Mist SCT055 BKN075 OVC100 74 74     100%   76 29.98 29.97 0    
Jun 21 22:53 6 5 Rain and Fog/Mist FEW033 SCT050 BKN110 74 74     100%   76 30 29.99 0    
Jun 21 21:53 E 10 10 Partly Cloudy SCT120 75 74     96%   77 29.97 29.96 0 0  
Jun 21 20:53 E 6 10 Light Rain FEW027 SCT110 74 74     100%   76 29.97 29.96 0    
Jun 21 19:53 E 7 10 Light Rain FEW005 OVC090 75 75     100%   77 29.97 29.96 0    
Jun 21 18:53 7 6 Light Rain and Fog/Mist OVC075 75 75     100%   77 29.97 29.96 0   1
Jun 21 18:08 E 6 10 Cloudy FEW010 BKN031 OVC065 74 74     100%   76 29.97   0    
Jun 21 17:53 E 8 5 Light Rain and Fog/Mist FEW011 BKN028 OVC048 74 74     100%   76 29.97 29.96 0    
Jun 21 17:01 E 8 7 Light Rain SCT009 BKN027 OVC033 74 74     100%   76 29.97   0    
Jun 21 16:53 E 8 2.5 Light Rain and Fog/Mist SCT009 BKN015 OVC037 74 74     100%   76 29.97 29.96 0    
Jun 21 16:20 E 6 1.5 Heavy Rain and Fog/Mist BKN009 BKN015 OVC027 74 74     100%   76 29.98   0    
Jun 21 16:11 10 2 Light Rain and Fog/Mist SCT007 BKN012 OVC027 74 74     100%   76 29.98   0    
Jun 21 15:53 E 10 1.25 Heavy Rain and Fog/Mist BKN007 OVC015 73 73     100%   75 29.98 29.97 0 0  
Jun 21 15:48 E 8 1.5 Rain and Fog/Mist SCT006 BKN009 OVC015 73 73     100%   75 29.98   0    
Jun 21 15:36 10 1.5 Rain and Fog/Mist FEW006 BKN014 OVC027 73 73     100%   75 29.98   0    
Jun 21 15:20 E 11 1.75 Rain and Fog/Mist SCT012 BKN021 OVC050 73 73     100%   75 29.99   0    
Jun 21 15:13 9 2.5 Light Rain and Fog/Mist SCT012 BKN035 OVC047 73 73     100%   75 29.99   0    
Jun 21 15:05 11 2.5 Light Rain and Fog/Mist SCT012 BKN023 OVC041 73 73     100%   75 29.99   0    
Jun 21 14:53 11 2.5 Light Rain and Fog/Mist FEW010 BKN035 OVC050 73 73     100%   75 30 29.98 0    
Jun 21 14:42 9 2.5 Rain and Fog/Mist FEW011 BKN039 OVC048 73 73     100%   75 30   0    
Jun 21 14:11 9 1.75 Heavy Rain and Fog/Mist FEW009 BKN049 OVC060 73 73     100%   75 30.01   0    
Jun 21 14:02 E 9 2.5 Rain and Fog/Mist FEW011 BKN047 OVC060 73 73     100%   75 30.01   0    
Jun 21 13:53 E 7 1.75 Heavy Rain and Fog/Mist SCT011 BKN041 OVC055 73 73     100%   75 30.01 30.01 0    
Jun 21 13:49 E 14 1.5 Heavy Rain and Fog/Mist SCT011 BKN040 OVC055 73 73     100%   75 30.02   0    
Jun 21 13:36 E 9 1.75 Heavy Rain and Fog/Mist BKN011 BKN039 OVC080 73 73     100%   75 30.02   0    
Jun 21 13:19 8 2.5 Rain and Fog/Mist FEW009 SCT055 OVC080 73 73     100%   75 30.02   0    
Jun 21 12:53 E 7 2 Heavy Rain and Fog/Mist FEW012 BKN055 OVC075 72 72     100%   74 30.03 30.02 0   0
Jun 21 12:16 E 6 2.5 Heavy Rain and Fog/Mist FEW019 BKN070 OVC090 73 73     100%   75 30.04   0    
Jun 21 11:53 E 7 5 Light Rain and Fog/Mist FEW018 BKN080 OVC100 73 73     100%   75 30.04 30.03 0    
Jun 21 10:53 8 5 Light Rain and Fog/Mist FEW024 BKN047 OVC070 73 73     100%   75 30.04 30.03 0    
Jun 21 09:53 8 6 Light Rain and Fog/Mist OVC055 73 72     96%   75 30.03 30.02 0 0  
Jun 21 08:53 E 6 9 Light Rain SCT055 OVC110 73 72     96%   75 30.02 30.01 0    
Jun 21 07:53 9 10 Cloudy OVC060 73 71     94%   74 30.01 30 0    
Jun 21 07:35 6 10 Cloudy SCT016 OVC060 73 71     94%   74 30.01   0    
Jun 21 06:53 7 10 Cloudy SCT016 BKN080 OVC120 73 71     94%   74 30.01 30      
Jun 21 06:30 6 10 Cloudy SCT015 OVC080 72 71     97%   73 30.01        
Jun 21 06:11 6 10 Cloudy BKN015 OVC085 72 71     97%   73 30.01        
Jun 21 05:53 6 10 Cloudy FEW017 OVC085 72 71     97%   73 30 29.99      
Jun 21 04:53 5 10 Mostly Cloudy BKN090 72 71     97%   73 30 29.99      
Jun 21 03:53 E 5 10 Clear CLR 72 71     97%   73 30 29.99      
Jun 21 02:53 3 10 Clear CLR 72 71     97%   73 30 29.99      
Jun 21 01:53 E 5 10 Mostly Clear FEW012 72 71     97%   73 30 29.99      
Jun 21 00:53 7 10 Mostly Clear FEW012 73 72     96%   75 30.01 30.01      
Jun 21 00:23 E 6 10 Partly Cloudy SCT012 73 72     96%   75 30.02        
Jun 20 23:53 SE 8 10 Cloudy OVC021 74 72     94%   75 30.03 30.02      
Jun 20 23:31 SE 8 10 Mostly Cloudy BKN021 74 73     97%   76 30.04        
Jun 20 22:53 SE 7 10 Mostly Cloudy SCT015 BKN050 BKN095 75 73     94%   77 30.04 30.03      
Jun 20 22:11 SE 3 10 Mostly Cloudy BKN015 75 74     96%   77 30.03        
Jun 20 21:21 S 7 9 Mostly Cloudy SCT014 BKN026 75 74     96%   77 30.02        
Jun 20 20:53 5 10 Mostly Cloudy SCT015 BKN043 76 74     94%   78 30.02 30.01      
Jun 20 19:53 SE 7 10 Mostly Clear FEW019 77 74     90%   79 30.01 30      
Jun 20 18:53 S 6 10 Cloudy BKN037 OVC048 78 74     87%   80 30 30     0
Jun 20 17:53 SE 9 10 Mostly Cloudy FEW025 SCT037 BKN048 79 73     82%   82 29.99 29.98      
Jun 20 17:17 5 10 Mostly Cloudy FEW027 SCT032 BKN042 82 73     74%   87 29.98        
Jun 20 16:53 6 10 Cloudy BKN027 BKN032 OVC040 82 75     79%   89 29.98 29.97      
Jun 20 16:39 SE 3 10 Mostly Cloudy BKN025 BKN040 82 76     82%   89 29.98        
Jun 20 15:53 Calm 10 Clear CLR 82 75     79%   89 29.99 29.98   0  
Jun 20 14:53 Calm 10 Clear CLR 80 76     87%   85 30.01 30      
Jun 20 13:53 Calm 10 Partly Cloudy FEW013 FEW020 SCT085 79 77     94%   83 30.03 30.02 0    
Jun 20 13:44 3 10 Mostly Cloudy SCT015 SCT050 BKN100 79 77     94%   83 30.03   0    
Jun 20 13:35 3 10 Mostly Cloudy SCT015 BKN019 BKN031 78 77     96%   81 30.04   0    
Jun 20 13:20 Calm 3 Light Rain and Fog/Mist SCT017 BKN033 OVC060 78 77     96%   81 30.04   0    
Jun 20 13:12 5 1.75 Heavy Rain and Fog/Mist SCT019 BKN038 OVC060 77 76     96%   79 30.04   0    
Jun 20 12:53 S 7 10 Cloudy BKN017 BKN024 OVC050 79 75     88%   83 30.04 30.03     0
Jun 20 12:11 SE 6 10 Cloudy BKN021 OVC080 80 75     85%   85 30.04        
Jun 20 11:53 Calm 10 Cloudy FEW017 BKN065 OVC080 80 75     85%   85 30.05 30.04      
Jun 20 11:28 Calm 10 Cloudy SCT017 BKN040 OVC060 79 76     90%   83 30.06        
Jun 20 10:53 SE 5 10 Cloudy SCT016 BKN021 OVC036 78 75     90%   80 30.06 30.05      
Jun 20 09:53 Calm 10 Cloudy SCT012 OVC026 78 76     93%   80 30.05 30.04   0  
Jun 20 08:53 Calm 9 Cloudy FEW005 BKN017 OVC029 76 76     100%   78 30.05 30.04 0    
Jun 20 08:26 E 5 9 Light Rain SCT011 BKN017 OVC038 75 75     100%   77 30.04   0    
Jun 20 08:10 E 7 3 Light Rain and Fog/Mist FEW006 BKN014 OVC038 75 75     100%   77     0    
Jun 20 07:59 E 5 1.75 Heavy Rain and Fog/Mist OVC014 75 75     100%   77 30.04   0    
Jun 20 07:53 E 3 3 Heavy Rain and Fog/Mist OVC014 75 75     100%   77   30.03 0    
Jun 20 07:06 E 3 7 Cloudy BKN014 OVC019 75 75     100%   77 30.02        
Jun 20 06:53 5 7 Cloudy OVC019 75 75     100%   77   30.01     0
Jun 20 05:53 Calm 9 Cloudy SCT013 OVC018 74 74     100%   76 30.01 30      
Jun 20 05:39 N 3 9 Cloudy BKN013 BKN018 OVC060 74 74     100%   76 30.01        
Jun 20 04:53 Calm 10 Mostly Cloudy BKN055 74 74     100%   76 30 29.99      
Jun 20 03:53 Calm 10 Cloudy FEW015 BKN060 OVC110 74 74     100%   76 30 29.99 0 0  
Jun 20 02:53 Calm 10 Mostly Clear FEW047 73 73     100%   75 30 29.99      
Jun 20 01:53 Calm 10 Mostly Clear FEW044 FEW070 73 73     100%   75 30.01 30      
Jun 20 00:53 NE 5 10 Cloudy BKN039 BKN047 OVC060 73 73     100%   75 30.02 30.01     2
Jun 20 00:28 N 5 10 Mostly Cloudy FEW003 BKN040 BKN055 73 73     100%   75 30.02        
Jun 19 23:53 Calm 10 Clear CLR 73 73     100%   75 30.03 30.02 0    
Jun 19 22:53 Calm 10 Light Rain FEW050 SCT095 BKN120 72 72     100%   74 30.03 30.02 0    
Jun 19 21:53 Calm 9 Light Rain BKN110 72 72     100%   74 30.03 30.02 0 2  
Jun 19 21:46 Calm 7 Light Rain BKN110 72 72     100%   74 30.03   0    
Jun 19 21:12 5 4 Thunderstorms and Rain and Fog/Mist SCT055 SCT070 OVC080 71 71     100%   73 30.02   0    
Jun 19 20:53 W 8 2 Thunderstorms and Heavy Rain and Fog/Mist OVC034 72 72     100%   74 30.01 30 2    
Jun 19 20:48 W 8 1 Thunderstorms and Heavy Rain and Fog/Mist OVC023 72 72     100%   73 30.01   2    
Notice The following observation data may not be complete
Jun 19 20:40   0.5 Thunderstorms and Heavy Rain and Fog VV011          %         2    
Jun 19 20:32 N 9 0.5 Thunderstorms and Heavy Rain and Fog BKN009 BKN017 OVC038 72 72     100%   74     1    
Jun 19 20:25 14 0.5 Thunderstorms and Heavy Rain and Fog BKN011 BKN018 OVC038 73 73     100%   75 30.03   1    
Jun 19 20:18 NE 14 1.5 Thunderstorms and Heavy Rain and Fog/Mist SCT015 BKN029 OVC038 75 75     100%   77 30.02   0    
Jun 19 20:16   3 Thunderstorms and Heavy Rain and Fog/Mist FEW017 BKN029 OVC043 76 75     97%   78 30.01   0    
Jun 19 19:53 9 10 Cloudy OVC025 78 75     90%   80 29.98 29.97      
Jun 19 19:49 SE 7 10 Cloudy OVC025 79 75     89%   82 29.98        
Jun 19 19:37 SE 6 10 Cloudy BKN021 BKN028 OVC038 81 76     85%   87 29.98        
Jun 19 18:53 E 3 9 Partly Cloudy SCT036 82 78     88%   91 29.97 29.96     0
Jun 19 16:53 N 6 10 Mostly Clear FEW060 84 78     82%   95 29.94 29.93      
Jun 19 15:53 8 10 Partly Cloudy FEW023 SCT029 SCT047 84 77     80%   94 29.94 29.93 0 0  
Jun 19 15:39 6 10 Partly Cloudy FEW021 SCT047 SCT090 84 77     80%   94 29.95   0    
Jun 19 15:30 6 10 Light Rain SCT020 BKN029 BKN047 84 78     82%   95 29.94   0    
Jun 19 14:53 Calm 10 Mostly Clear FEW028 86 75     70%   95 29.94 29.93 0    
Jun 19 14:00 W 3 10 Light Rain SCT023 BKN035 BKN085 84 78     82%   95 29.96   0    
Jun 19 13:53 W 3 10 Light Rain BKN022 BKN035 OVC085 83 78     85%   93 29.97 29.96 0    
Jun 19 13:50 3 10 Light Rain BKN022 BKN033 OVC085 82 79     89%   92 29.97   0    
Jun 19 12:53 3 10 Mostly Clear FEW016 83 77     82%   92 29.98 29.97      
Jun 19 12:15 5 10 Partly Cloudy SCT017 81 76     85%   87 30        
Jun 19 11:53 7 10 Mostly Cloudy BKN016 81 76     85%   87 30.01 30      
Jun 19 11:16 Calm 10 Mostly Cloudy BKN015 80 75     85%   85 29.99        
Jun 19 11:08 5 10 Mostly Cloudy BKN013 80 76     87%   85 29.99        
Notice The following observation data may not be complete
Jun 19 10:22   10 Mostly Cloudy BKN012          %              
Jun 19 09:53 3 10 Partly Cloudy SCT009 77 75     94%   79 30 29.99      
Jun 19 09:37 6 10 Mostly Clear FEW009 77 75     94%   79 29.99        
Jun 19 08:53 5 10 Clear CLR 75 74     96%   77 29.98 29.97      
Jun 19 07:53 6 10 Clear CLR 74 73     97%   76 29.97 29.96      
Jun 19 06:53 3 10 Clear CLR 73 73     100%   75 29.96 29.95      
Jun 19 05:53 Calm 9 Clear CLR 72 72     100%   74 29.95 29.94      
Jun 19 04:53 Calm 9 Clear CLR 72 72     100%   74 29.94 29.93      
Jun 19 03:53 Calm 10 Clear CLR 72 72     100%   74 29.93 29.92      
Jun 19 01:53 Calm 10 Clear CLR 73 73     100%   75 29.94 29.93      
Jun 19 00:53 5 10 Clear CLR 73 73     100%   75 29.95 29.94     0
Jun 18 21:53 6 10 Light Rain SCT110 72 72     100%   74 29.91 29.9 0 0  
Jun 18 21:45 S 6 9 Light Rain BKN110 73 73     100%   75 29.92   0    
Jun 18 20:53 6 10 Thunderstorms and Rain FEW036 BKN095 71 71     100%   73 29.96 29.95 0    
Jun 18 20:29 5 10 Thunderstorms and Rain SCT024 BKN037 OVC120 72 72     100%   74 29.95   0    
Jun 18 19:53   10 Cloudy FEW011 OVC023 73 72     96%   75 29.94 29.93 0    
Jun 18 19:36   10 Thunderstorms and Rain FEW011 BKN027 BKN050 75 74     96%   77 29.93   0    
Jun 18 19:14 Calm 9 Mostly Clear FEW110 74 74     100%   76 29.91   0    
Jun 18 18:53 E 7 8 Thunderstorms and Rain BKN110 73 73     100%   75 29.89 29.88 0   0
Jun 18 18:33 9 8 Light Rain FEW046 FEW120 73 73     100%   75 29.88   0    
Jun 18 18:20 6 9 Mostly Cloudy FEW055 SCT080 BKN110 74 74     100%   76 29.88   0    
Jun 18 17:53 6 10 Mostly Cloudy SCT038 BKN055 74 74     100%   76 29.85 29.85 0    
Jun 18 17:50 E 7 10 Mostly Cloudy SCT038 BKN050 BKN080 73 73     100%   75 29.85   0    
Jun 18 17:25 10 4 Rain and Fog/Mist SCT037 BKN049 OVC075 75 73     94%   77 29.86   0    
Jun 18 16:41 SE 10 4 Thunderstorms and Rain FEW011 SCT041 BKN075 79 73     82%   82 29.85   0    
Jun 18 15:53 8 10 Mostly Clear FEW044 89 73     59%   97 29.85 29.84      
Jun 18 14:53 3 10 Clear CLR 87 77     72%   99 29.84 29.83      
Jun 18 13:53 6 10 Clear CLR 87 77     72%   99 29.88 29.88      
Jun 18 13:14 9 10 Mostly Cloudy SCT030 BKN039 BKN049 83 75     77%   90 29.91        
Jun 18 12:00 5 10 Mostly Cloudy SCT023 SCT032 BKN055 84 76     77%   93 29.92        
Jun 18 10:30 S 6 9 Partly Cloudy FEW017 SCT026 82 77     85%   90 29.92        
Jun 18 08:53 S 5 7 Clear   78 77     96%   81 29.94 29.93      
Jun 18 08:49 6 7 Clear   77 77     100%   79 29.93        
Jun 18 07:53 S 6 6 Fog/Mist OVC016 76 76     100%   78 29.91 29.9      
Jun 18 07:48 S 7 6 Fog/Mist FEW006 OVC016 75 75     100%   77 29.91        
Jun 18 07:02 Calm 5 Fog/Mist OVC015 75 75     100%   77 29.91        
Jun 18 06:53 Calm 5 Fog/Mist OVC013 75 75     100%   77 29.91 29.9      
Jun 18 06:33 S 6 3 Fog/Mist SCT009 OVC012 75 75     100%   77 29.9        
Jun 18 06:29 S 6 2.5 Fog/Mist OVC012 75 75     100%   77 29.9        
Jun 18 06:21 5 2 Fog/Mist BKN008 OVC013 74 74     100%   76 29.9        
Jun 18 06:13 S 5 1.75 Fog/Mist BKN008 OVC012 74 74     100%   76 29.9        
Jun 18 05:53 S 3 3 Fog/Mist BKN006 OVC011 74 74     100%   76 29.9 29.89      
Jun 18 05:44 Calm 3 Fog/Mist OVC004 74 74     100%   76 29.89        
Jun 18 05:26 Calm 2.5 Fog/Mist OVC004 74 74     100%   76 29.88        
Jun 18 05:00 Calm 2.5 Fog/Mist OVC005 74 74     100%   76 29.88        
Jun 18 04:53 3 3 Fog/Mist OVC005 74 74     100%   76 29.88 29.87      
Jun 18 03:53 5 6 Fog/Mist OVC006 75 75     100%   77 29.88 29.87      
Jun 18 02:53 3 7 Cloudy OVC006 75 75     100%   77 29.86 29.85      
Jun 18 01:53 6 7 Cloudy OVC005 74 74     100%   76 29.83 29.83      
Jun 18 01:04 S 7 9 Mostly Cloudy BKN006 75 75     100%   77 29.83        
Jun 18 00:53 8 9 Partly Cloudy SCT006 75 75     100%   77 29.83 29.82      
Jun 17 22:53 S 7 10 Clear CLR 76 73     91%   77 29.86 29.85      
Jun 17 21:53 5 10 Clear CLR 77 73     88%   79 29.85 29.84      
Jun 17 20:53 S 7 10 Clear CLR 80 72     76%   84 29.84 29.83      
Jun 17 19:53 S 5 10 Clear CLR 82 72     72%   87 29.82 29.81      
Jun 17 18:53 S 5 10 Clear CLR 85 70     61%   89 29.81 29.8      
Jun 17 16:53 S 5 10 Clear CLR 87 71     59%   93 29.82 29.81      
Jun 17 15:53 6 10 Clear CLR 87 71     59%   93 29.82 29.81      
Jun 17 14:53 S 6 10 Clear CLR 87 71     59%   93 29.83 29.82      
Jun 17 13:53 3 10 Partly Cloudy SCT039 85 69     59%   89 29.85 29.85      
Jun 17 12:53 7 10 Clear CLR 84 71     65%   89 29.87 29.86      
Jun 17 11:53 3 10 Clear CLR 80 69     69%   83 29.88 29.87      
Jun 17 10:53 6 10 Clear CLR 78 69     74%   79 29.9 29.89      
Jun 17 09:53 WSW 5 10 Mostly Clear FEW015 75 70     84%   76 29.92 29.91      
Jun 17 09:40 WSW 6 10 Partly Cloudy SCT015 75 70     84%   76 29.91        
Jun 17 09:32 WSW 7 10 Mostly Cloudy BKN015 75 70     84%   76 29.91        
Jun 17 08:53 7 10 Partly Cloudy SCT011 73 70     90%   74 29.91 29.91      
Notice The following observation data may not be complete
Jun 17 08:22   10 Partly Cloudy SCT004          %              
Jun 17 07:53 6 9 Cloudy OVC003 69 69     100%     29.89 29.88      
Jun 17 07:33 3 4 Fog/Mist OVC002 68 68     100%     29.88        
Jun 17 07:25 Calm 2.5 Fog/Mist OVC002 67 67     100%     29.88        
Jun 17 07:17 Calm 3 Fog/Mist OVC002 68 68     100%     29.88        
Jun 17 07:10 Calm 2.5 Fog/Mist OVC002 68 68     100%     29.87        
Jun 17 06:53 Calm 1.75 Fog/Mist OVC002 67 67     100%     29.87 29.86      
Jun 17 06:45 Calm 3 Fog/Mist OVC002 67 67     100%     29.87        
Jun 17 06:36 Calm 1.75 Fog/Mist OVC002 67 67     100%     29.86        
Jun 17 06:28 Calm 2 Fog/Mist OVC002 67 67     100%     29.86        
Jun 17 06:18 Calm 1 Fog/Mist VV002 66 66     100%     29.86        
Jun 17 05:53 Calm 0.25 Fog VV002 66 66     100%     29.85 29.84      
Jun 17 05:45 Calm 1.5 Fog/Mist BKN002 66 66     100%     29.86        
Jun 17 05:26 Calm 10 Mostly Clear FEW002 67 67     100%     29.85        
Jun 17 04:53 Calm 9 Clear CLR 66 66     100%     29.85 29.84      
Jun 17 02:53 Calm 10 Clear CLR 67 67     100%     29.83 29.82      
Jun 17 01:53 Calm 10 Clear CLR 68 68     100%     29.82 29.81      
Jun 17 00:53 3 10 Clear CLR 68 68     100%     29.86 29.85      
Jun 16 22:53 Calm 10 Clear CLR 70 69     97%     29.87 29.86      
Jun 16 21:53 Calm 10 Clear CLR 72 67     84%   73 29.87 29.86      
Jun 16 20:53 6 10 Clear CLR 73 67     81%   74 29.86 29.85      
Jun 16 20:21 W 10 10 Mostly Clear FEW031 FEW041 FEW100 74 66     76%   75 29.85        
Jun 16 19:53 13 10 Cloudy BKN028 BKN036 OVC044 76 69     79%   77 29.85 29.84      
Jun 16 18:53 Calm 10 Clear CLR 82 76     82%   89 29.84 29.83      
Jun 16 16:53 5 10 Partly Cloudy SCT050 86 75     70%   95 29.85 29.84      
Jun 16 15:53 E 3 10 Mostly Cloudy BKN040 85 74     70%   92 29.86 29.85      
Jun 16 14:44 5 10 Mostly Cloudy SCT023 BKN036 85 74     70%   92 29.88        
Jun 16 14:21 3 10 Cloudy BKN023 OVC030 82 75     79%   89 29.89        
Jun 16 13:53 5 10 Cloudy OVC026 83 76     79%   91 29.9 29.89      
Jun 16 12:53 7 10 Partly Cloudy SCT021 81 74     79%   86 29.92 29.91     0
Jun 16 12:04 3 10 Mostly Clear FEW019 79 73     82%   82 29.92        
Jun 16 11:53 Calm 10 Mostly Cloudy BKN019 78 72     82%   79 29.92 29.91      
Jun 16 11:05 6 10 Mostly Cloudy BKN021 75 72     90%   76 29.94        
Jun 16 10:53 6 10 Partly Cloudy SCT023 75 72     90%   76 29.95 29.94      
Jun 16 09:53 5 10 Mostly Cloudy BKN034 BKN043 75 71     88%   76 29.95 29.94   0  
Jun 16 08:53 5 10 Mostly Cloudy FEW005 SCT032 BKN055 73 69     87%   74 29.96 29.96      
Jun 16 08:21 S 5 10 Mostly Cloudy FEW007 BKN032 72 69     91%   73 29.96        
Jun 16 07:53 Calm 10 Mostly Cloudy BKN034 BKN042 71 70     96%   72 29.95 29.95 0    
Jun 16 06:53 Calm 10 Mostly Cloudy FEW005 BKN036 BKN049 71 69     93%   72 29.95 29.95      
Jun 16 06:04 SE 3 9 Mostly Cloudy SCT004 BKN100 69 68     96%     29.95        
Jun 16 05:28 3 10 Cloudy OVC008 69 68     96%     29.95        
Jun 16 05:05 S 3 10 Mostly Cloudy FEW005 BKN010 BKN050 69 68     96%     29.94        
Jun 16 05:00 Calm 10 Mostly Cloudy BKN008 BKN042 BKN050 68 68     100%     29.94        
Jun 16 04:53 Calm 10 Cloudy SCT005 BKN011 OVC050 69 68     96%     29.94 29.93      
Jun 16 03:53 Calm 10 Cloudy OVC006 68 67     96%     29.93 29.93      
Jun 16 02:53 Calm 10 Mostly Cloudy BKN007 BKN100 68 67     96%     29.92 29.92      
Jun 16 02:25 Calm 10 Mostly Cloudy BKN007 68 67     96%     29.92        
Jun 16 02:13 3 10 Partly Cloudy SCT008 SCT100 68 67     96%     29.93        
Jun 16 01:53 Calm 10 Clear CLR 68 67     96%     29.93 29.92      
Jun 16 00:53 Calm 9 Clear CLR 68 67     96%     29.93 29.92      
Jun 15 22:53 3 10 Clear CLR 69 68     96%     29.96 29.95      
Jun 15 21:53 WSW 5 10 Clear CLR 69 68     96%     29.96 29.96      
Jun 15 20:53 Calm 10 Clear CLR 70 69     97%     29.97 29.96      
Jun 15 19:53 Calm 10 Clear CLR 70 69     97%     29.96 29.95      
Jun 15 16:53 6 7 Light Rain BKN110 70 68     93%     29.99 29.98 0    
Jun 15 16:31 13 3 Thunderstorms and Rain and Fog/Mist FEW015 BKN038 OVC110 70 68     93%     29.97   0    
Jun 15 16:15   0.75 Thunderstorms and Heavy Rain and Fog/Mist FEW015 BKN027 OVC049 70 69     97%         0    
Jun 15 16:11   1.75 Thunderstorms and Heavy Rain and Fog/Mist FEW015 BKN034 OVC070 72 69     91%   73 30.05   0    
Jun 15 16:03 NNW 11 8 Thunderstorms and Rain FEW046 BKN055 OVC100 72 68     87%   73     0    
Jun 15 14:53 8 4 Thunderstorms and Rain and Fog/Mist SCT021 BKN100 OVC120 72 70     93%   73 29.99   1    
Jun 15 14:47   2 Thunderstorms and Heavy Rain and Fog/Mist BKN025 BKN045 OVC110 72 70     94%   73 30   1    
Jun 15 14:41   0.5 Thunderstorms and Heavy Rain and Fog BKN023 BKN041 OVC050 71 69     93%   72 30   1    
Jun 15 14:37   0.25 Thunderstorms and Heavy Rain and Fog BKN014 BKN041 OVC070 71 68     90%   72 30   1    
Jun 15 14:34   0.25 Thunderstorms and Heavy Rain and Fog BKN008 BKN041 OVC070 71 68     90%   72 29.99   1    
Jun 15 14:26   0.75 Thunderstorms and Heavy Rain FEW016 SCT041 BKN050 77 68     74%   78 30   0    
Notice The following observation data may not be complete
Jun 15 13:53 WSW 7 10 Thunderstorms FEW090   72      %     29.93 29.92      
Jun 15 13:43 6 10 Thunderstorms FEW080 FEW100 90 72     56%   97 29.93        
Jun 15 13:31 10 10 Mostly Cloudy FEW038 SCT050 BKN080 90 75     62%   101 29.93        
Jun 15 11:53 5 10 Partly Cloudy SCT036 SCT047 87 72     61%   94 29.97 29.96      
Jun 15 10:53 WSW 7 10 Mostly Clear FEW029 87 73     63%   95 30 30      
Jun 15 09:53 W 9 10 Clear CLR 85 73     68%   92 30.02 30.01      
Jun 15 08:53 3 10 Clear CLR 82 73     74%   87 30.03 30.02      
Jun 15 08:36 Calm 10 Mostly Clear FEW002 80 73     79%   84 30.03        
Jun 15 07:53 Calm 10 Clear CLR 77 73     88%   79 30.02 30.01      
Jun 15 06:53 Calm 8 Clear CLR 75 73     94%   77 30.01 30      
Jun 15 05:53 Calm 4 Fog/Mist CLR 72 71     97%   73 29.99 29.98      
Jun 15 04:53 Calm 5 Fog/Mist CLR 72 71     97%   73 29.99 29.98      
Jun 15 03:53 Calm 5 Fog/Mist CLR 73 72     96%   75 29.99 29.98      
Jun 15 03:02 Calm 7 Mostly Clear FEW009 74 73     97%   76 30        
Jun 15 02:53 3 7 Clear CLR 74 73     97%   76 30 29.98      
Jun 15 00:53 Calm 9 Clear CLR 75 73     94%   77 30.01 30     0
Jun 14 23:53 Calm 10 Clear CLR 76 74     94%   78 30 29.99 0    
Jun 14 22:53 Calm 10 Clear CLR 76 74     94%   78 30.01 30      
Jun 14 20:53 W 3 10 Clear CLR 80 72     76%   84 30 29.99      
Jun 14 19:53 3 10 Clear CLR 83 71     67%   88 29.98 29.98      
Jun 14 18:53 6 10 Clear CLR 85 71     63%   90 29.98 29.97      
Jun 14 17:53 5 10 Clear CLR 86 70     59%   91 29.98 29.98      
Jun 14 15:53 5 10 Mostly Clear FEW042 89 69     52%   94 30 29.99      
Jun 14 14:53 E 5 10 Mostly Cloudy BKN039 87 69     55%   91 30.01 30      
Jun 14 13:53 WSW 3 10 Clear CLR 86 69     57%   90 30.04 30.03      
Jun 14 12:53 Calm 10 Clear CLR 83 70     65%   87 30.07 30.06      
Jun 14 12:24 3 10 Partly Cloudy SCT026 83 70     65%   87 30.08        
Jun 14 11:53 WSW 3 10 Cloudy BKN022 OVC029 81 71     72%   85 30.09 30.08      
Jun 14 11:11 Calm 10 Cloudy OVC017 78 70     76%   79 30.1        
Jun 14 10:53 Calm 10 Cloudy OVC013 77 71     82%   78 30.1 30.09      
Jun 14 09:53 5 10 Cloudy OVC008 75 71     88%   76 30.1 30.09      
Jun 14 09:10 5 9 Cloudy OVC005 74 71     91%   75 30.09        
Jun 14 08:53 6 9 Cloudy OVC004 73 71     94%   74 30.09 30.08      
Jun 14 08:03 S 6 4 Fog/Mist OVC003 72 71     97%   73 30.08        
Jun 14 07:53 S 6 2.5 Fog/Mist OVC002 71 71     100%   73 30.08 30.07      
Jun 14 07:48 5 1.75 Fog/Mist OVC002 72 72     100%   73 30.07        
Jun 14 07:21 3 0.5 Fog OVC002 71 71     100%   73 30.07        
Jun 14 07:11 3 0.25 Fog OVC002 71 71     100%   73 30.06        
Jun 14 07:02 5 1.75 Fog/Mist OVC002 71 71     100%   73 30.06        
Jun 14 06:53 6 4 Fog/Mist OVC004 72 71     97%   73 30.06 30.05      
Jun 14 06:19 Calm 7 Mostly Cloudy BKN008 72 71     97%   73 30.04        
Jun 14 06:11 Calm 8 Partly Cloudy SCT008 71 70     96%   72 30.04        
Jun 14 05:53 Calm 3 Fog/Mist CLR 71 70     96%   72 30.04 30.03      
Jun 14 05:44 Calm 1.75 Fog/Mist CLR 70 69     97%     30.04        
Jun 14 04:53 Calm 9 Clear CLR 71 70     96%   72 30.02 30.01      
Jun 14 03:53 Calm 9 Clear CLR 71 70     96%   72 30.02 30.01      
Jun 14 02:53 5 10 Clear CLR 74 71     91%   75 30.02 30.01      
Jun 14 01:53 S 3 10 Clear CLR 73 71     94%   74 30.03 30.02      
Jun 14 00:53 S 5 10 Clear CLR 74 71     91%   75 30.03 30.02      
Jun 13 23:53 3 10 Clear CLR 76 71     85%   77 30.03 30.02      
Jun 13 22:53 SE 6 10 Clear CLR 77 71     82%   78 30.03 30.02      
Jun 13 21:53 SE 3 10 Clear CLR 78 71     79%   79 30.03 30.02      
Jun 13 20:53 5 10 Clear CLR 79 71     77%   82 30.02 30.01      
Jun 13 18:53 S 11 10 Clear CLR 86 69     57%   90 30 29.99      
Jun 13 16:53 3 10 Partly Cloudy SCT046 SCT055 88 67     50%   91 29.99 29.98      
Jun 13 15:53 SE 5 10 Partly Cloudy FEW060 SCT080 86 68     55%   89 30.01 30      
Jun 13 14:53 3 10 Mostly Cloudy SCT049 BKN065 87 68     53%   91 30.02 30.02      
Jun 13 13:53 Calm 10 Mostly Cloudy BKN044 85 68     57%   88 30.04 30.03      
Jun 13 11:53 6 10 Mostly Cloudy FEW027 BKN036 BKN045 81 71     72%   85 30.1 30.09      
Jun 13 11:48 WSW 5 10 Mostly Cloudy SCT027 BKN038 81 72     74%   85 30.1        
Jun 13 11:40 WSW 5 10 Mostly Cloudy BKN027 BKN036 BKN047 81 71     72%   85 30.11        
Jun 13 10:53 Calm 10 Mostly Cloudy FEW027 SCT034 BKN041 83 72     70%   88 30.12 30.11      
Notice The following observation data may not be complete
Jun 13 10:31 3 10 Cloudy FEW019 BKN043 OVC050          %     30.12        
Jun 13 10:17 Calm 10 Mostly Cloudy BKN020 BKN028 BKN046 79 72     79%   82 30.13        
Jun 13 10:08 Calm 10 Mostly Cloudy FEW018 SCT026 BKN043 79 72     79%   82 30.13        
Jun 13 09:53 Calm   Cloudy BKN018 BKN043 OVC050 81 73     77%   86 30.13 30.12      
Jun 13 09:25 5 10 Cloudy OVC015 78 74     87%   80 30.14        
Jun 13 08:53 3 10 Cloudy SCT009 BKN013 OVC022 75 72     90%   76 30.14 30.13      
Jun 13 08:18 6 10 Cloudy SCT009 BKN013 OVC022 74 72     94%   75 30.14        
Jun 13 07:30 SE 3 10 Mostly Cloudy BKN010 BKN014 BKN024 73 71     94%   74 30.13        
Jun 13 07:12 SE 5 10 Mostly Cloudy FEW009 BKN023 73 70     90%   74 30.12        
Jun 13 06:53 3 10 Partly Cloudy SCT023 72 70     93%   73 30.12 30.11      
Jun 13 06:12 Calm 10 Mostly Cloudy SCT014 SCT023 BKN031 71 70     96%   72 30.11        
Jun 13 05:53 Calm 10 Mostly Cloudy SCT013 SCT023 BKN029 71 70     96%   72 30.1 30.09      
Jun 13 05:49 Calm 10 Mostly Cloudy FEW013 SCT023 BKN030 72 70     94%   73 30.1        
Jun 13 04:53 Calm 10 Mostly Cloudy BKN020 BKN025 72 71     97%   73 30.09 30.08      
Jun 13 04:25 Calm 10 Mostly Cloudy SCT012 BKN018 71 70     96%   72 30.08        
Jun 13 04:11 Calm 9 Mostly Cloudy BKN012 71 70     96%   72 30.08        
Jun 13 03:53 Calm 9 Mostly Clear FEW011 71 70     96%   72 30.07 30.06      
Jun 13 02:53 E 3 10 Clear CLR 71 71     100%   73 30.06 30.05      
Jun 13 01:53 Calm 10 Clear CLR 72 71     97%   73 30.06 30.05      
Jun 13 00:53 Calm 10 Clear CLR 72 71     97%   73 30.07 30.06     0
Jun 12 23:53 SE 3 10 Clear CLR 72 71     97%   73 30.08 30.07      
Jun 12 22:53 Calm 10 Clear CLR 73 70     90%   74 30.09 30.08      
Jun 12 21:53 E 6 10 Clear CLR 73 70     90%   74 30.08 30.07   0  
Jun 12 19:33 SE 7 8 Light Rain SCT050 BKN060 OVC120 75 70     84%   76 30.06   0    
Jun 12 19:26 SE 9 2.5 Rain SCT048 BKN065 OVC120 75 70     84%   76 30.06   0    
Jun 12 19:16 SE 13 1.75 Thunderstorms and Heavy Rain and Fog/Mist FEW030 BKN050 OVC070 74 70     87%   75 30.06   0    
Jun 12 19:00 22 10 Thunderstorms FEW030 BKN039 BKN055 80 68     67%   83          
Jun 12 18:53   9 Mostly Cloudy SCT032 BKN050 BKN060 84 69     61%   88 30.06 30.05      
Jun 12 18:50 20 9 Mostly Cloudy and Windy FEW034 SCT050 BKN075 88 70     55%   93 30.04        
Jun 12 17:53 S 8 10 Clear CLR 89 69     52%   94 30.01 30      
Jun 12 16:53 SE 6 10 Mostly Clear FEW050 90 69     50%   95 30.03 30.03      
Jun 12 15:53 7 10 Partly Cloudy SCT055 90 69     50%   95 30.04 30.03      
Jun 12 14:53 E 6 10 Partly Cloudy SCT048 87 69     55%   91 30.06 30.05      
Jun 12 13:53 7 10 Partly Cloudy SCT042 SCT055 88 69     54%   92 30.08 30.07      
Jun 12 12:53 S 8 10 Mostly Cloudy SCT041 BKN055 87 70     57%   92 30.11 30.11      
Jun 12 11:53 5 10 Mostly Cloudy SCT036 SCT047 BKN055 84 69     61%   88 30.14 30.14      
Jun 12 10:53 E 3 10 Mostly Cloudy FEW027 SCT032 BKN046 83 70     65%   87 30.15 30.14      
Jun 12 10:41 S 5 10 Mostly Cloudy FEW027 BKN032 84 71     65%   89 30.15        
Jun 12 09:53 5 10 Cloudy OVC023 81 72     74%   85 30.15 30.14      
Jun 12 09:03 Calm 10 Mostly Cloudy BKN016 BKN022 79 72     79%   82 30.15        
Jun 12 08:53 S 3 10 Partly Cloudy SCT015 78 73     85%   80 30.15 30.14      
Jun 12 08:42 6 10 Mostly Cloudy BKN015 78 72     82%   79 30.15        
Jun 12 08:11 S 6 10 Partly Cloudy SCT013 77 72     84%   78 30.15        
Jun 12 07:53 SE 5 10 Cloudy FEW002 OVC013 77 72     84%   78 30.14 30.13      
Jun 12 07:38 Calm 10 Cloudy OVC014 76 73     91%   77 30.14        
Jun 12 07:02 Calm 10 Mostly Cloudy BKN015 74 72     94%   75 30.13        
Jun 12 06:53 E 5 10 Partly Cloudy SCT015 74 72     94%   75 30.13 30.12      
Jun 12 06:46 Calm 10 Mostly Cloudy BKN015 74 72     94%   75 30.13        
Jun 12 05:53 Calm 10 Clear CLR 74 71     91%   75 30.11 30.1      
Jun 12 04:53 Calm 10 Clear CLR 73 71     94%   74 30.11 30.1      
Jun 12 03:53 S 6 10 Clear CLR 73 71     94%   74 30.11 30.1      
Jun 12 02:53 S 3 10 Clear CLR 74 71     91%   75 30.1 30.09      
Jun 12 01:53 3 10 Clear CLR 76 71     85%   77 30.1 30.09      
Jun 12 00:53 Calm 10 Clear CLR 76 71     85%   77 30.1 30.09      
Jun 11 23:53 3 10 Clear CLR 77 71     82%   78 30.1 30.09      
Jun 11 22:53 SE 8 10 Partly Cloudy SCT110 79 70     74%   82 30.1 30.09      
Jun 11 21:53 Calm 10 Cloudy SCT055 BKN065 OVC100 80 70     71%   83 30.1 30.09      
Jun 11 20:53 S 6 10 Partly Cloudy SCT055 80 70     71%   83 30.08 30.07      
Jun 11 19:53 14 10 Clear CLR 82 70     67%   86 30.05 30.04      
Jun 11 18:53 SE 8 10 Mostly Clear FEW100 88 66     48%   90 30.05 30.04      
Jun 11 17:53 S 7 10 Mostly Clear FEW075 89 66     47%   92 30.05 30.04      
Jun 11 16:53 S 8 10 Clear CLR 91 67     45%   94 30.05 30.04      
Jun 11 15:53 10 10 Mostly Cloudy BKN055 90 67     47%   93 30.07 30.06      
Jun 11 14:53 SE 9 10 Mostly Cloudy SCT055 BKN070 90 67     47%   93 30.08 30.07      
Jun 11 13:53 7 10 Mostly Clear FEW050 90 67     47%   93 30.1 30.09      
Jun 11 12:53 SE 7 10 Mostly Clear FEW048 88 67     50%   91 30.11 30.1      
Jun 11 11:53 6 10 Clear CLR 87 68     53%   91 30.12 30.11      
Jun 11 10:53 S 9 10 Clear CLR 85 68     57%   88 30.13 30.12      
Jun 11 09:53 6 10 Clear CLR 83 67     59%   86 30.13 30.12      
Jun 11 08:53 Calm 10 Clear CLR 78 65     64%   79 30.13 30.12      
Jun 11 07:53 3 10 Mostly Cloudy FEW080 BKN095 75 65     71%   76 30.12 30.11      
Jun 11 06:53 5 10 Cloudy OVC085 72 64     76%   72 30.1 30.09      
Jun 11 05:53 NE 3 9 Mostly Clear FEW060 67 64     90%     30.08 30.07      
Jun 11 04:53 Calm 10 Mostly Cloudy BKN065 68 65     90%     30.06 30.05      
Jun 11 03:53 NE 3 10 Partly Cloudy SCT065 67 65     93%     30.05 30.04      
Jun 11 02:53 Calm 9 Clear CLR 67 66     97%     30.05 30.04      
Jun 11 01:53 Calm 10 Partly Cloudy SCT065 68 66     93%     30.06 30.05      
Jun 11 00:53 Calm 10 Clear CLR 68 65     90%     30.06 30.05     0
Jun 10 23:53 3 10 Clear CLR 71 66     84%   72 30.07 30.06 0    
Jun 10 22:53 Calm 10 Clear CLR 72 65     79%   73 30.07 30.06      
Jun 10 21:53 Calm 10 Clear CLR 74 65     74%   74 30.06 30.05      
Jun 10 20:53 E 5 10 Mostly Cloudy BKN080 78 64     62%   79 30.03 30.02      
Jun 10 19:53 6 10 Clear CLR 82 61     49%   83 30.02 30.01      
Jun 10 18:53 SE 3 10 Clear CLR 84 60     44%   84 30.01 30      
Jun 10 17:53 S 9 10 Clear CLR 86 61     43%   86 30 29.99      
Jun 10 16:53 SE 8 10 Mostly Cloudy BKN080 85 61     45%   85 30.01 30      
Jun 10 15:53 10 10 Partly Cloudy SCT080 87 62     43%   88 30.02 30.01      
Jun 10 14:53 SE 8 10 Partly Cloudy FEW060 SCT080 88 62     42%   88 30.03 30.02      
Jun 10 13:53 S 9 10 Clear CLR 87 59     39%   86 30.04 30.03      
Jun 10 12:53 3 10 Mostly Cloudy SCT060 BKN080 84 62     48%   85 30.06 30.05      
Jun 10 11:53 3 10 Partly Cloudy SCT080 86 60     42%   86 30.07 30.06      
Jun 10 10:53 5 10 Mostly Clear FEW080 84 63     49%   85 30.07 30.06      
Jun 10 09:53 6 10 Clear CLR 81 62     53%   82 30.07 30.06      
Jun 10 08:53 E 3 10 Clear CLR 78 65     64%   79 30.07 30.06      
Jun 10 07:53 Calm 10 Clear CLR 71 64     79%   72 30.05 30.04      
Jun 10 06:53 Calm 9 Partly Cloudy SCT065 65 62     90%     30.03 30.02      
Jun 10 04:53 Calm 9 Clear CLR 63 62     97%     30 29.99      
Jun 10 03:53 Calm 10 Partly Cloudy SCT075 63 62     97%     29.99 29.98      
Jun 10 02:53 Calm 10 Mostly Clear FEW070 63 62     97%     29.99 29.98      
Jun 10 01:53 Calm 10 Clear CLR 64 62     93%     29.99 29.98      
Jun 10 00:53 Calm 10 Clear CLR 65 63     93%     29.98 29.98      
Jun 09 23:53 Calm 10 Clear CLR 67 63     87%     29.98 29.97      
Jun 09 22:53 Calm 10 Clear CLR 67 64     90%     29.98 29.97      
Jun 09 21:53 Calm 10 Mostly Clear FEW060 69 65     87%     29.97 29.96      
Jun 09 20:53 Calm 10 Clear CLR 71 64     79%   72 29.95 29.94      
Jun 09 19:53 Calm 10 Mostly Clear FEW065 78 60     54%   78 29.93 29.93      
Jun 09 18:53 W 6 10 Mostly Cloudy BKN060 81 60     49%   82 29.92 29.92      
Jun 09 17:53 6 10 Mostly Cloudy BKN060 82 58     44%   82 29.91 29.91      
Jun 09 16:53 7 10 Mostly Clear FEW060 84 59     43%   84 29.92 29.91      
Jun 09 15:53 7 10 Clear CLR 82 58     44%   82 29.94 29.93      
Jun 09 13:53 8 10 Mostly Clear FEW055 83 59     44%   83 29.96 29.95      
Jun 09 12:53 3 10 Clear CLR 81 58     45%   81 29.97 29.96      
Jun 09 11:53 S 10 10 Clear CLR 81 58     45%   81 29.98 29.97      
Jun 09 10:53   10 Clear CLR 79 56     45%   79 29.98 29.97      
Jun 09 09:53 Calm 10 Clear CLR 76 61     60%   76 29.98 29.97      
Jun 09 08:53 Calm 10 Clear CLR 72 59     64%   72 29.98 29.97      
Jun 09 07:53 Calm 10 Clear CLR 67 60     79%     29.98 29.97      
Jun 09 06:53 Calm 9 Clear CLR 61 59     93%     29.96 29.95      
Jun 09 04:53 Calm 6 Fog/Mist CLR 59 57     93%     29.92 29.91      
Jun 09 03:53 Calm 10 Clear CLR 60 58     93%     29.92 29.91      
Jun 09 02:53 Calm 8 Clear   60 58     93%     29.92 29.91      
Jun 09 01:53 Calm 8 Clear CLR 61 59     93%     29.92 29.91      
Jun 09 00:53 Calm 10 Clear CLR 63 59     87%     29.93 29.92      
Jun 08 23:53 Calm 10 Clear CLR 63 60     90%     29.92 29.92      
Jun 08 22:53 N 5 10 Clear CLR 67 58     73%     29.93 29.92      
Jun 08 21:53 NNW 3 10 Clear CLR 70 58     66%     29.91 29.9      
Jun 08 19:53 6 10 Clear CLR 75 57     54%   75 29.88 29.87      
Jun 08 18:53 7 10 Clear CLR 79 56     45%   79 29.87 29.86      
Jun 08 16:53 N 10 10 Clear CLR 82 56     41%   82 29.86 29.85      
Jun 08 15:53 9 10 Mostly Clear FEW060 81 56     42%   81 29.88 29.87      
Jun 08 14:53 8 10 Partly Cloudy SCT060 79 55     44%   79 29.9 29.89      
Jun 08 13:53 6 10 Partly Cloudy SCT055 81 57     44%   81 29.92 29.91      
Jun 08 12:53 7 10 Mostly Cloudy BKN050 77 55     47%   77 29.92 29.92      
Jun 08 11:53   10 Clear CLR 78 56     47%   78 29.93 29.92      
Jun 08 10:53 N 8 10 Clear CLR 76 59     56%   76 29.94 29.93      
Jun 08 09:53 3 10 Clear CLR 73 59     61%   73 29.95 29.93      
Jun 08 08:53 5 10 Clear CLR 70 58     66%     29.94 29.93      
Jun 08 07:53 N 3 10 Clear CLR 66 57     73%     29.94 29.93      
Jun 08 06:53 N 6 10 Clear CLR 63 56     78%     29.93 29.92      
Jun 08 05:53 N 5 10 Clear CLR 60 56     86%     29.91 29.9      
Jun 08 04:53 N 5 10 Clear CLR 61 56     83%     29.89 29.88      
Jun 08 03:53 N 6 10 Clear CLR 62 56     80%     29.88 29.87      
Jun 08 02:53 N 3 10 Clear CLR 63 56     78%     29.88 29.87      
Jun 08 01:53 N 6 10 Clear CLR 64 56     75%     29.88 29.88      
Jun 08 00:53 N 5 10 Clear CLR 65 56     73%     29.89 29.88      
Jun 07 23:53 6 10 Clear CLR 66 55     68%     29.89 29.88      
Jun 07 22:53 N 8 10 Clear CLR 68 55     63%     29.9 29.89      
Jun 07 21:53 N 8 10 Clear CLR 70 55     59%     29.89 29.88      
Jun 07 21:27 N 8 10 Mostly Clear FEW002 71 56     59%   71 29.88        
Jun 07 20:53 N 7 10 Clear CLR 73 55     53%   73 29.87 29.85      
Jun 07 19:53 N 8 10 Clear CLR 76 55     48%   75 29.85 29.84      
Jun 07 18:53 N 9 10 Clear CLR 81 54     39%   81 29.84 29.83      
Jun 07 17:53 14 10 Clear CLR 83 53     36%   82 29.83 29.82      
Jun 07 16:53 N 14 10 Clear CLR 84 53     35%   83 29.82 29.81      
Jun 07 15:53 N 17 10 Clear CLR 84 53     35%   83 29.81 29.8      
Jun 07 14:53 16 10 Clear CLR 83 56     40%   82 29.81 29.8      
Jun 07 13:53 15 10 Clear CLR 83 55     38%   82 29.82 29.81      
Jun 07 12:53 NNW 16 10 Clear CLR 81 56     42%   81 29.82 29.81      
Jun 07 11:53 N 15 10 Clear CLR 80 57     45%   80 29.83 29.82      
Jun 07 10:53 N 13 10 Clear CLR 79 60     52%   79 29.83 29.83      
Jun 07 09:53 14 10 Clear CLR 76 59     56%   76 29.83 29.83      
Jun 07 08:53 NE 9 10 Clear CLR 74 59     60%   74 29.83 29.83      
Jun 07 07:53 13 10 Clear CLR 71 60     68%   71 29.83 29.82      
Jun 06 14:04 NE 10 10 Cloudy FEW022 BKN037 OVC120 78 70     76%   79 29.76        
Jun 06 13:53 14 10 Cloudy BKN024 BKN029 OVC037 78 70     76%   79 29.76 29.75 0    
Jun 06 13:08 9 10 Cloudy BKN022 OVC070 78 70     76%   79 29.77   0    
Jun 06 12:53 10 10 Light Rain SCT022 BKN050 OVC065 78 69     74%   79 29.77 29.77 0   0
Jun 06 11:53 7 10 Cloudy FEW017 OVC037 76 70     82%   77 29.79 29.78      
Jun 06 11:42 NE 10 10 Cloudy SCT027 OVC037 75 70     84%   76 29.79        
Jun 06 10:53 NE 8 10 Cloudy FEW012 BKN019 OVC029 77 72     84%   78 29.79 29.78 0    
Jun 06 10:31 NE 3 10 Cloudy SCT010 BKN015 OVC100 77 72     84%   78 29.79   0    
Jun 06 09:53 NNW 3 9 Light Rain OVC010 74 72     94%   75 29.8 29.79 0 0  
Jun 06 09:25 Calm 7 Light Rain OVC010 74 71     91%   75 29.8   0    
Jun 06 09:05 Calm 10 Cloudy OVC009 74 71     91%   75 29.8        
Jun 06 08:53 Calm 10 Cloudy OVC010 74 71     91%   75 29.8 29.79      
Notice The following observation data may not be complete
Jun 06 08:37   10 Cloudy BKN010 OVC044          %              
Jun 06 08:08 Calm 10 Cloudy SCT008 OVC022 74 71     91%   75 29.8        
Jun 06 07:53 Calm 10 Cloudy BKN007 OVC024 73 71     94%   74 29.8 29.79      
Jun 06 06:53 Calm 10 Cloudy OVC006 72 70     93%   73 29.79 29.78      
Jun 06 05:53 Calm 10 Cloudy OVC007 71 71     100%   73 29.78 29.77      
Jun 06 04:53 Calm 10 Cloudy OVC006 72 71     97%   73 29.78 29.77      
Jun 06 03:53 NE 3 10 Cloudy OVC007 72 70     93%   73 29.77 29.76      
Jun 06 03:16 3 10 Cloudy OVC009 72 70     93%   73 29.77        
Jun 06 03:04 E 6 10 Cloudy OVC010 72 70     93%   73 29.77        
Jun 06 02:53 E 3 10 Cloudy OVC009 72 70     93%   73 29.77 29.76      
Jun 06 02:34 SE 3 10 Cloudy OVC009 72 70     93%   73 29.77        
Jun 06 02:21 Calm 10 Cloudy OVC010 71 71     100%   73 29.76        
Jun 06 01:53 Calm 10 Cloudy OVC009 72 70     93%   73 29.77 29.76      
Jun 06 00:53 SE 6 10 Cloudy OVC012 72 70     93%   73 29.79 29.78     0
Jun 05 23:53 SE 5 10 Cloudy OVC011 73 71     94%   74 29.8 29.79      
Jun 05 23:22 5 10 Cloudy BKN013 OVC018 73 71     94%   74 29.8        
Jun 05 22:53 5 10 Cloudy FEW009 BKN016 OVC100 72 71     97%   73 29.8 29.8      
Jun 05 22:46 E 5 10 Cloudy FEW010 BKN018 OVC100 72 71     97%   73 29.81        
Jun 05 22:35 E 3 10 Clear   72 71     97%   73 29.81        
Jun 05 22:05 E 3 10 Clear   72 71     97%   73 29.81        
Jun 05 21:53 3 10 Clear   72 71     97%   73 29.8 29.8 0 0  
Jun 05 21:43 NE 5 10 Cloudy BKN009 OVC023 72 71     97%   73 29.8   0    
Jun 05 21:25 NE 3 10 Mostly Cloudy SCT007 BKN023 72 72     100%   74 29.79   0    
Jun 05 20:53 E 5 10 Mostly Cloudy BKN008 72 71     97%   73 29.79 29.78      
Jun 05 20:46 7 10 Partly Cloudy SCT008 72 71     97%   73 29.78        
Jun 05 19:53 5 10 Clear CLR 72 71     97%   73 29.78 29.77 0    
Jun 05 18:53 5 7 Light Rain SCT090 BKN120 72 71     97%   73 29.77 29.76 0   1
Jun 05 17:53 6 7 Light Rain FEW060 SCT085 BKN110 72 71     97%   73 29.78 29.77 1    
Jun 05 17:40 5 4 Rain and Fog/Mist SCT021 BKN070 OVC090 72 71     97%   73 29.79   1    
Jun 05 17:32 6 2.5 Rain and Fog/Mist FEW010 BKN038 OVC065 72 71     97%   73 29.79   1    
Jun 05 17:27 E 6 1 Heavy Rain and Fog/Mist FEW008 BKN022 OVC060 72 71     97%   73 29.79   1    
Jun 05 17:23 E 6 0.5 Heavy Rain and Fog FEW008 BKN019 OVC037 71 71     100%   73 29.79   1    
Jun 05 17:14 SE 8 0.75 Heavy Rain and Fog/Mist FEW022 SCT028 OVC038 72 71     97%   73 29.79   0    
Jun 05 17:09 SE 8 1.5 Heavy Rain and Fog/Mist FEW008 BKN029 OVC036 72 71     97%   73 29.8   0    
Jun 05 17:05 SE 7 1.5 Heavy Rain and Fog/Mist FEW008 SCT022 OVC036 72 71     97%   73 29.79   0    
Jun 05 17:01 7 1.75 Heavy Rain and Fog/Mist SCT022 SCT028 OVC036 73 71     94%   74 29.79   0    
Jun 05 16:53 SE 11 3 Rain and Fog/Mist SCT022 BKN036 OVC110 73 70     90%   74 29.79 29.78 0    
Jun 05 16:49 SE 11 5 Rain and Fog/Mist SCT022 BKN036 OVC110 73 70     89%   75 29.79   0    
Notice The following observation data may not be complete
Jun 05 16:03   10 Mostly Cloudy BKN090          %              
Jun 05 15:53 7 10 Mostly Cloudy BKN090 80 71     74%   84 29.76 29.75   0  
Jun 05 14:53 NNW 9 10 Partly Cloudy SCT100 79 71     77%   82 29.79 29.78 0    
Jun 05 13:53 3 10 Light Rain FEW050 BKN100 BKN110 76 72     88%   77 29.8 29.79 0    
Jun 05 13:34 10 3 Rain and Fog/Mist FEW038 BKN070 OVC110 73 71     94%   74 29.8   0    
Jun 05 13:26 8 1.75 Heavy Rain and Fog/Mist FEW039 BKN070 OVC095 74 71     91%   75 29.8   0    
Jun 05 13:18 WSW 10 4 Light Rain and Fog/Mist FEW039 BKN060 OVC095 75 72     90%   76 29.81   0    
Jun 05 12:53 3 8 Light Rain FEW034 SCT065 BKN080 80 73     79%   84 29.8 29.79 0   0
Jun 05 11:53 3 10 Mostly Cloudy FEW033 FEW080 BKN100 82 75     79%   89 29.82 29.81      
Jun 05 11:15 Calm 10 Mostly Cloudy FEW019 FEW025 BKN100 80 73     79%   84 29.84        
Jun 05 10:53 N 6 10 Mostly Cloudy FEW014 SCT021 BKN029 77 73     88%   79 29.84 29.83 0    
Jun 05 10:38 Calm 4 Light Rain and Fog/Mist SCT017 BKN024 OVC055 76 74     94%   78 29.84   0    
Jun 05 09:53 6 10 Cloudy SCT017 BKN022 OVC085 79 73     82%   82 29.85 29.84      
Jun 05 09:43 6 10 Cloudy FEW015 BKN035 OVC085 79 72     79%   82 29.86        
Jun 05 09:23 5 10 Cloudy BKN015 BKN021 OVC090 78 73     85%   80 29.86        
Jun 05 09:01 S 8 10 Cloudy BKN013 OVC017 78 73     85%   80 29.86        
Jun 05 08:53 S 6 10 Cloudy BKN009 OVC015 78 73     85%   80 29.86 29.85      
Jun 05 08:51 S 8 10 Cloudy BKN009 OVC015 79 73     84%   82 29.86        
Jun 05 08:41 S 7 9 Mostly Cloudy BKN010 BKN014 77 73     88%   79 29.87        
Jun 05 07:53 5 9 Cloudy OVC009 75 73     94%   77 29.86 29.85      
Jun 05 07:36 6 10 Cloudy BKN009 BKN017 OVC090 75 73     94%   77 29.86        
Jun 05 07:10 S 8 10 Cloudy FEW007 BKN019 OVC110 74 73     97%   76 29.86        
Jun 05 06:53 7 10 Mostly Cloudy SCT020 BKN080 BKN095 74 72     94%   75 29.86 29.85      
Jun 05 06:21 S 5 9 Cloudy SCT009 OVC090 73 72     96%   75 29.86        
Jun 05 06:02 3 9 Cloudy BKN009 BKN080 OVC090 73 72     96%   75 29.86        
Jun 05 05:53 S 3 10 Cloudy SCT009 OVC080 73 72     96%   75 29.85 29.85      
Jun 05 05:18 Calm 10 Cloudy FEW007 BKN070 OVC080 73 72     96%   75 29.85        
Jun 05 04:53 S 5 10 Cloudy OVC070 73 72     96%   75 29.85 29.84      
Jun 05 03:53 3 10 Cloudy OVC090 73 71     94%   74 29.84 29.83      
Jun 05 02:53 5 10 Cloudy OVC095 74 71     91%   75 29.85 29.84      
Jun 05 01:53 S 6 10 Clear CLR 73 71     94%   74 29.86 29.85      
Jun 05 00:53 S 3 10 Mostly Clear FEW100 73 71     94%   74 29.87 29.86      
Jun 04 23:53 S 3 10 Clear   73 71     94%   74 29.87 29.86      
Jun 04 22:53 S 7 10 Mostly Cloudy BKN090 75 71     88%   76 29.88 29.87      
Jun 04 21:53 S 5 10 Cloudy BKN055 OVC090 76 72     88%   77 29.89 29.88      
Jun 04 20:53 Calm 10 Mostly Cloudy BKN070 BKN090 76 73     91%   77 29.87 29.86      
Jun 04 19:53 S 5 10 Clear CLR 78 73     85%   80 29.87 29.86      
Jun 04 18:53 WSW 5 10 Mostly Cloudy FEW026 SCT055 BKN090 80 71     74%   84 29.86 29.85     0
Jun 04 16:53 6 10 Partly Cloudy FEW031 SCT095 83 71     67%   88 29.85 29.84 0    
Jun 04 15:53 8 10 Cloudy BKN070 OVC090 84 71     65%   89 29.87 29.86   0  
Jun 04 14:53 7 10 Mostly Cloudy FEW036 BKN070 BKN085 85 71     63%   90 29.87 29.86 0    
Jun 04 13:53 S 5 10 Mostly Clear FEW036 86 70     59%   91 29.9 29.89      
Jun 04 12:53 5 10 Clear CLR 83 69     63%   87 29.93 29.92     0
Jun 04 11:53 Calm 10 Mostly Clear FEW120 81 69     67%   84 29.96 29.95 0    
Jun 04 10:53 7 10 Mostly Clear FEW023 FEW045 79 71     77%   82 29.98 29.97 0    
Jun 04 09:53 3 10 Mostly Clear FEW018 79 70     74%   82 29.98 29.97      
Jun 04 08:53 S 5 10 Mostly Cloudy SCT011 BKN065 76 71     85%   77 29.99 29.98      
Jun 04 07:53 S 6 10 Mostly Cloudy BKN011 73 71     94%   74 29.99 29.98      
Jun 04 07:33 S 5 10 Mostly Cloudy SCT009 BKN013 73 72     96%   75 29.99        
Jun 04 07:05 SE 3 10 Partly Cloudy SCT010 73 72     96%   75 29.98        
Jun 04 06:53 SE 3 10 Mostly Cloudy BKN009 BKN100 73 71     94%   74 29.98 29.97      
Jun 04 06:07 Calm 10 Cloudy BKN009 OVC100 73 71     94%   74 29.98        
Jun 04 05:53 Calm 10 Cloudy SCT009 SCT075 OVC100 73 71     94%   74 29.98 29.97      
Jun 04 05:45 Calm 10 Mostly Cloudy SCT009 BKN100 73 71     94%   74 29.98        
Jun 04 04:53 S 5 10 Mostly Cloudy FEW010 BKN110 72 72     100%   74 29.97 29.96      
Jun 04 04:00 Calm 10 Cloudy FEW006 OVC110 72 72     100%   74 29.97        
Jun 04 03:53 Calm 10 Cloudy OVC100 72 72     100%   74 29.97 29.96      
Jun 04 02:53 Calm 10 Mostly Clear FEW008 73 72     96%   75 29.97 29.96      
Jun 04 02:49 S 3 10 Mostly Clear FEW008 73 72     94%   75 29.97        
Jun 04 01:53 S 5 10 Mostly Clear FEW100 73 72     96%   75 29.98 29.97      
Jun 04 00:53 S 3 10 Mostly Clear FEW007 73 72     96%   75 30 29.99      
Jun 04 00:42 3 10 Partly Cloudy SCT007 73 73     100%   75 30        
Jun 04 00:33 3 10 Mostly Cloudy BKN008 73 73     100%   75 30        
Jun 04 00:17 Calm 10 Partly Cloudy SCT008 74 73     97%   76 30        
Jun 03 23:53 S 5 10 Clear CLR 74 73     97%   76 30 29.99      
Jun 03 22:53 S 5 10 Clear CLR 75 73     94%   77 30 29.99      
Jun 03 21:53 6 10 Clear CLR 75 73     94%   77 30.01 30      
Jun 03 20:53 S 5 10 Partly Cloudy FEW042 SCT055 SCT065 76 72     88%   77 30 29.99      
Jun 03 19:53 S 5 10 Mostly Clear FEW022 78 72     82%   79 29.99 29.98      
Jun 03 19:30 3 10 Partly Cloudy SCT022 78 71     79%   79 29.99        
Jun 03 19:01 3 10 Mostly Cloudy BKN019 78 71     79%   79 29.98        
Jun 03 18:53 5 10 Partly Cloudy SCT019 78 72     82%   79 29.98 29.97      
Jun 03 17:53 S 7 10 Clear CLR 79 71     77%   82 29.96 29.96      
Jun 03 16:53 7 10 Mostly Cloudy FEW065 SCT080 BKN095 80 72     76%   84 29.97 29.96      
Jun 03 15:53 S 8 10 Cloudy FEW050 BKN070 OVC080 79 72     79%   82 29.99 29.98      
Jun 03 14:53 S 9 10 Mostly Clear FEW060 80 71     74%   84 29.99 29.98      
Jun 03 13:53 9 10 Mostly Cloudy FEW070 BKN100 78 72     82%   79 30.01 30      
Jun 03 12:53 S 10 10 Partly Cloudy FEW027 SCT100 82 72     72%   87 30.02 30.01      
Jun 03 11:53 Calm 10 Mostly Cloudy BKN034 BKN046 84 71     65%   89 30.03 30.02      
Jun 03 10:53 E 6 10 Mostly Cloudy BKN090 82 71     69%   86 30.05 30.04      
Jun 03 09:53 5 10 Partly Cloudy SCT085 79 70     74%   82 30.05 30.04      
Jun 03 08:53 3 10 Clear CLR 78 71     79%   79 30.06 30.05      
Jun 03 07:53 E 3 10 Clear CLR 74 71     91%   75 30.06 30.05      
Jun 03 07:20 Calm 9 Mostly Cloudy FEW024 BKN095 71 70     96%   72 30.06        
Jun 03 06:53 5 8 Mostly Cloudy BKN023 70 69     97%     30.06 30.05     0
Jun 03 06:35 6 8 Mostly Cloudy BKN023 70 69     97%     30.05        
Jun 03 05:53 3 6 Fog/Mist CLR 68 68     100%     30.03 30.02      
Jun 03 04:53 Calm 3 Fog/Mist CLR 68 67     96%     30.01 30      
Jun 03 03:53 Calm 7 Clear CLR 69 69     100%     30 29.99   0  
Jun 03 02:53 Calm 9 Clear CLR 70 69     97%     30 29.98 0    
Jun 03 01:53 Calm 9 Light Rain OVC095 71 70     96%   72 30 29.99 0    
Jun 03 00:53 E 3 5 Fog/Mist SCT090 70 70     100%     30.01 30.01     0
Jun 02 23:53 Calm 6 Fog/Mist CLR 71 70     96%   72 30.03 30.02      
Jun 02 22:53 Calm 5 Fog/Mist SCT043 BKN050 BKN065 71 71     100%   73 30.03 30.02      
Jun 02 21:53 3 7 Clear CLR 71 71     100%   73 30.03 30.02 0 0  
Jun 02 20:53 3 6 Fog/Mist CLR 71 71     100%   73 30.01 30      
Jun 02 19:53 Calm 8 Clear CLR 72 71     97%   73 30.01 30      
Jun 02 18:53 Calm 10 Mostly Cloudy BKN095 74 71     91%   75 30 29.99     0
Jun 02 17:53 7 10 Cloudy FEW039 OVC085 72 70     93%   73 30 29.99 0    
Jun 02 17:20 NE 9 7 Light Rain FEW026 BKN050 OVC070 73 70     90%   74 30.01   0    
Jun 02 16:59 E 7 9 Thunderstorms FEW014 BKN033 OVC080 74 72     94%   75 30.02        
Jun 02 16:53 E 8 9 Cloudy FEW020 BKN065 OVC080 75 73     94%   77 30.02 30.01 0    
Jun 02 16:35 7 10 Light Rain SCT030 BKN070 OVC085 74 70     87%   75 30   0    
Jun 02 16:27 NE 11 2 Light Rain and Fog/Mist SCT037 BKN065 OVC080 73 69     87%   74 30.01   0    
Jun 02 16:20 NE 10 0.75 Heavy Rain and Fog/Mist BKN033 BKN060 OVC080 73 69     87%   74 30.02   0    
Jun 02 16:10 SE 10 1.5 Heavy Rain and Fog/Mist FEW028 BKN055 OVC070 75 72     90%   76 30.01   0    
Jun 02 15:53 E 6 10 Mostly Cloudy SCT028 BKN038 BKN055 82 70     67%   86 30.01 30      
Jun 02 14:53 N 5 10 Partly Cloudy FEW025 SCT070 SCT110 82 72     72%   87 30.02 30.01      
Jun 02 14:50 N 7 10 Mostly Cloudy FEW023 SCT070 BKN110 82 72     70%   87 30.02        
Jun 02 14:23 N 5 10 Mostly Cloudy BKN023 81 72     74%   85 30.02        
Jun 02 13:53   10 Mostly Cloudy SCT020 BKN120 82 71     69%   86 30.03 30.03      
Jun 02 12:53 5 10 Mostly Clear FEW070 80 72     76%   84 30.06 30.05     0
Jun 02 11:53 3 10 Cloudy FEW012 SCT050 OVC100 77 72     84%   78 30.07 30.06 0    
Jun 02 11:33 5 8 Light Rain SCT012 BKN060 OVC095 76 72     88%   77 30.08   0    
Jun 02 11:10 N 5 8 Light Rain BKN011 BKN028 OVC100 76 72     88%   77 30.08   0    
Jun 02 10:53 3 10 Light Rain FEW013 BKN028 OVC100 76 72     88%   77 30.08 30.07 0    
Jun 02 10:18 NE 3 10 Cloudy FEW014 BKN027 OVC110 76 71     85%   77 30.08        
Jun 02 09:53 Calm 10 Cloudy FEW010 BKN031 OVC110 74 71     91%   75 30.09 30.08 0 0  
Jun 02 08:53 Calm 7 Light Rain FEW008 SCT050 OVC100 73 71     94%   74 30.1 30.09 0    
Jun 02 08:41 3 6 Light Rain and Fog/Mist SCT008 BKN070 OVC090 73 71     94%   74 30.1   0    
Jun 02 08:19 SE 3 6 Light Rain and Fog/Mist SCT011 SCT075 OVC090 73 71     94%   74 30.1   0    
Jun 02 07:53 Calm 8 Light Rain FEW009 BKN017 OVC085 73 71     94%   74 30.09 30.08 0    
Jun 02 07:49 Calm 9 Light Rain BKN018 OVC085 73 70     89%   75 30.09   0    
Jun 02 06:53 E 3 9 Mostly Cloudy SCT095 BKN110 73 71     94%   74 30.07 30.06 0   0
Jun 02 06:17 Calm 9 Cloudy FEW014 OVC100 72 70     93%   73 30.06   0    
Jun 02 05:53 E 3 10 Cloudy OVC014 72 70     93%   73 30.06 30.05      
Jun 02 04:53 E 3 10 Cloudy BKN011 OVC016 72 70     93%   73 30.04 30.03      
Jun 02 04:45 E 3 10 Cloudy BKN011 BKN016 OVC110 72 71     97%   73 30.04        
Jun 02 04:23 E 5 9 Mostly Cloudy SCT011 BKN110 71 71     100%   73 30.04        
Jun 02 03:53 5 10 Mostly Cloudy BKN010 BKN013 72 71     97%   73 30.04 30.03      
Jun 02 03:43 NE 6 9 Cloudy BKN010 BKN023 OVC110 72 71     97%   73 30.04        
Jun 02 02:53 S 3 10 Cloudy BKN009 OVC100 73 71     94%   74 30.03 30.02      
Jun 02 02:10 Calm 9 Mostly Cloudy SCT007 BKN110 73 72     96%   75 30.03        
Jun 02 01:53 3 10 Mostly Cloudy BKN007 BKN110 73 71     94%   74 30.03 30.02      
Jun 02 01:27 5 10 Mostly Cloudy BKN008 73 71     94%   74 30.03        
Jun 02 00:53 Calm 10 Mostly Cloudy SCT008 BKN110 73 71     94%   74 30.03 30.02     0
Jun 02 00:49 Calm 10 Mostly Cloudy BKN008 BKN110 73 72     94%   75 30.03        
Jun 02 00:35 Calm 10 Partly Cloudy SCT009 73 71     94%   74 30.04        
Jun 01 23:53 7 10 Clear CLR 73 71     94%   74 30.04 30.03      
Jun 01 22:53 5 10 Partly Cloudy SCT120 74 72     94%   75 30.05 30.04      
Jun 01 21:53 Calm 10 Cloudy FEW028 OVC110 73 72     96%   75 30.05 30.04   0  
Jun 01 21:43 Calm 10 Cloudy SCT028 OVC110 73 73     100%   75 30.05        
Jun 01 21:35 Calm 9 Cloudy BKN027 OVC110 73 73     100%   75 30.05        
Jun 01 20:53 Calm 10 Mostly Cloudy FEW025 BKN110 74 73     97%   76 30.04 30.03 0    
Jun 01 19:53 Calm 9 Partly Cloudy FEW031 SCT110 74 73     97%   76 30.03 30.03      
Jun 01 18:53 NE 3 10 Cloudy SCT034 BKN049 OVC120 73 72     96%   75 30.02 30.02 0   0
Jun 01 17:53 5 10 Cloudy OVC032 80 70     71%   83 30.02 30.01      
Jun 01 16:53 Calm 10 Mostly Clear FEW035 81 69     67%   84 30.02 30.01      
Jun 01 15:53 3 10 Mostly Clear FEW041 82 68     63%   85 30.03 30.02      
Jun 01 14:53 5 10 Mostly Cloudy BKN031 80 68     67%   83 30.05 30.04      
Jun 01 14:29 Calm 10 Mostly Cloudy SCT030 BKN035 80 68     67%   83 30.06        
Jun 01 14:14 Calm 10 Mostly Cloudy BKN029 80 68     67%   83 30.06        
Jun 01 13:53 3 10 Partly Cloudy SCT028 80 68     67%   83 30.07 30.06      
Jun 01 12:53 Calm 10 Mostly Clear FEW043 FEW110 80 68     67%   83 30.1 30.09      
Jun 01 10:12 Calm 10 Mostly Clear FEW011 77 70     79%   78 30.12        
Jun 01 09:53 Calm 10 Partly Cloudy SCT011 76 70     82%   77 30.12 30.11      
Jun 01 09:29 W 3 9 Partly Cloudy SCT007 SCT013 74 70     87%   75 30.12        
Jun 01 08:30 Calm 8 Mostly Cloudy BKN006 BKN120 71 69     93%   72 30.12        
Jun 01 07:53 Calm 9 Mostly Clear FEW008 69 68     96%     30.11 30.1      
Jun 01 07:46 Calm 9 Partly Cloudy SCT007 69 68     96%     30.11        
Jun 01 07:11 NE 3 8 Mostly Cloudy BKN007 68 68     100%     30.11        
Jun 01 07:02 3 8 Partly Cloudy SCT006 68 67     96%     30.11        
Jun 01 06:53 3 8 Clear CLR 68 67     96%     30.11 30.1      
Jun 01 06:09 3 8 Partly Cloudy SCT009 67 67     100%     30.1        
Jun 01 05:53 NE 3 8 Mostly Cloudy BKN009 67 66     97%     30.1 30.09      
Jun 01 04:53 Calm 9 Cloudy OVC009 67 66     97%     30.09 30.08      
Jun 01 04:45 Calm 9 Cloudy OVC009 67 66     97%     30.09        
Jun 01 04:30 Calm 9 Mostly Cloudy BKN011 67 66     97%     30.08        
Jun 01 04:18 Calm 9 Partly Cloudy SCT009 66 65     96%     30.08        
Jun 01 03:53 Calm 9 Mostly Clear FEW011 66 66     100%     30.08 30.07      
Jun 01 03:27 Calm 8 Mostly Clear FEW009 65 65     100%     30.08        
Jun 01 02:53 Calm 7 Clear CLR 66 66     100%     30.07 30.06      
Jun 01 01:53 Calm 7 Clear CLR 67 66     97%     30.07 30.06      
Jun 01 00:53 Calm 9 Clear CLR 67 67     100%     30.07 30.06      
May 31 23:53 Calm 10 Clear CLR 69 67     93%     30.08 30.07      
May 31 22:53 Calm 10 Clear CLR 69 68     96%     30.09 30.08      
May 31 20:53 Calm 10 Clear CLR 72 67     84%   73 30.09 30.08      
May 31 19:53 6 10 Clear CLR 75 67     76%   76 30.08 30.07      
May 31 18:53 6 10 Clear CLR 76 67     74%   77 30.07 30.06     0
May 31 17:53 S 11 10 Mostly Clear FEW046 FEW110 79 67     67%   80 30.06 30.05      
May 31 16:53 3 10 Clear CLR 84 64     51%   85 30.05 30.05      
May 31 15:53 3 10 Mostly Clear FEW075 84 69     61%   88 30.05 30.04 0 0  
May 31 14:53 6 9 Light Rain FEW040 BKN070 OVC100 78 73     85%   80 30.07 30.06 0    
May 31 14:46 S 6 7 Light Rain SCT040 BKN060 OVC100 77 73     88%   79 30.07   0    
May 31 14:37 S 7 2.5 Light Rain SCT039 BKN055 BKN070 77 71     82%   78 30.07   0    
May 31 13:53 5 10 Mostly Clear FEW040 82 66     58%   84 30.08 30.07      
May 31 12:53 N 9 9 Clear   82 68     63%   85 30.1 30.09      
May 31 11:53 NNW 3 9 Mostly Clear FEW030 FEW038 FEW050 81 67     62%   83 30.12 30.11      
May 31 10:53 3 10 Mostly Cloudy SCT041 BKN055 80 67     64%   82 30.13 30.12      
May 31 09:53 Calm 10 Clear CLR 78 67     69%   79 30.13 30.12      
May 31 08:53 3 10 Mostly Clear FEW050 75 68     79%   76 30.14 30.13      
May 31 07:53 Calm 10 Clear CLR 72 68     87%   73 30.12 30.11      
May 31 06:53 Calm 8 Clear CLR 69 69     100%     30.11 30.1     0
May 31 05:53 Calm 4 Fog/Mist FEW090 67 67     100%     30.1 30.1      
May 31 04:53 Calm 9 Mostly Cloudy FEW050 BKN100 68 68     100%     30.1 30.09      
May 31 03:53 Calm 10 Mostly Clear FEW060 FEW070 69 69     100%     30.1 30.09 0 0  
May 31 02:53 NE 3 10 Cloudy BKN044 BKN050 OVC065 69 68     96%     30.1 30.09      
May 31 02:34 S 6 9 Cloudy SCT002 OVC042 69 69     100%     30.11        
May 31 02:29 S 7 2.5 Fog/Mist BKN002 OVC042 69 69     100%     30.11        
May 31 02:15 Calm 0.5 Fog BKN002 69 69     100%     30.1        
May 31 02:08 Calm 1 Fog/Mist VV002 69 69     100%     30.09        
May 31 00:53 5 5 Fog/Mist BKN095 69 69     100%     30.12 30.11     0
May 30 23:53 Calm 9 Mostly Cloudy BKN095 70 69     97%     30.12 30.11      
May 30 22:53 Calm 6 Fog/Mist SCT090 70 69     97%     30.11 30.1      
May 30 21:53 3 10 Mostly Clear FEW110 71 70     96%   72 30.11 30.1 0 0  
May 30 20:53 Calm 10 Partly Cloudy SCT017 71 70     96%   72 30.08 30.07 0    
May 30 20:46 Calm 10 Light Rain SCT015 72 69     91%   73 30.08   0    
May 30 20:22 WSW 5 10 Mostly Cloudy BKN015 71 70     96%   72 30.08        
May 30 19:53 Calm 9 Clear CLR 72 70     93%   73 30.07 30.06      
May 30 18:53 Calm 10 Cloudy FEW090 OVC110 74 69     85%   75 30.07 30.06 0   0
May 30 17:53 3 9 Light Rain OVC110 72 71     97%   73 30.07 30.07 0    
May 30 16:53 W 8 7 Light Rain FEW055 SCT100 BKN120 76 71     85%   77 30.09 30.08 0    
May 30 16:43 W 5 10 Partly Cloudy FEW050 FEW100 SCT120 77 70     79%   78 30.08   0    
May 30 15:53 9 10 Mostly Clear FEW030 79 69     72%   80 30.07 30.06   0  
May 30 14:53 7 10 Partly Cloudy SCT110 83 67     59%   86 30.07 30.06      
May 30 13:53 WSW 7 10 Mostly Clear FEW055 83 66     57%   85 30.09 30.09 0